GFSGL_250_rhum_054.txt.gz
RH
38 32 29 28 26 26 32 54 71 72 83 100 97 97 100 100 99 91 100 94 86 90 95 100 99 100 100 100 92 91 95 93 100 100 100 100 100 100 100 100 78 69 64
42 33 34 32 34 30 27 27 28 38 74 86 99 100 97 100 100 100 100 100 100 100 100 100 100 100 100 100 100 100 100 100 100 100 100 100 100 100 100 63 68 72 78
45 45 43 37 41 45 36 30 31 33 37 38 42 61 66 70 89 90 98 100 100 100 100 100 100 100 100 100 99 89 100 100 100 100 100 96 81 61 68 73 77 86 84
74 53 55 47 46 44 53 48 38 31 31 35 39 41 42 47 51 57 69 96 100 100 100 99 100 100 100 100 100 100 100 100 81 57 60 63 65 66 74 79 85 83 82
100 94 62 56 56 50 47 66 61 46 42 33 32 38 49 54 58 61 67 64 78 89 100 100 100 95 82 85 98 86 58 59 62 66 66 76 83 86 91 93 81 83 80
71 99 97 76 62 54 65 58 72 77 71 69 50 45 42 34 35 44 48 56 59 71 80 79 65 61 52 54 58 55 51 56 68 68 64 69 92 95 92 86 92 98 100
68 97 83 74 82 62 71 60 73 80 80 88 78 62 59 58 48 41 36 34 35 40 50 61 64 61 51 50 50 50 55 62 73 74 75 74 78 76 81 88 100 100 100
50 65 100 100 95 96 79 76 78 84 81 77 79 92 70 74 72 75 65 56 52 50 49 48 50 49 51 63 65 78 80 76 73 83 84 79 81 88 98 100 100 99 99
69 61 61 68 99 100 100 100 100 94 78 77 95 86 92 90 96 93 93 91 80 71 68 66 64 62 68 73 80 85 84 91 96 98 82 80 91 100 100 97 98 100 96
79 92 95 100 100 100 100 100 100 100 100 100 100 99 84 85 91 100 100 100 100 100 100 100 100 100 100 100 100 100 100 99 88 88 89 95 100 100 100 100 97 96 97
100 98 100 100 100 100 100 100 100 100 100 100 100 100 100 100 91 100 100 100 100 100 100 100 100 100 100 100 100 100 100 100 100 100 100 100 98 94 100 100 100 100 100
100 96 100 100 100 100 100 100 100 100 100 100 100 100 100 100 100 100 100 100 100 100 100 100 100 100 100 100 100 100 100 96 100 98 82 88 99 91 85 86 98 93 95
100 100 100 100 100 100 100 100 100 100 100 100 100 100 100 100 100 100 100 100 100 100 93 99 100 98 92 98 100 100 100 100 100 100 100 100 100 95 81 90 99 100 97
99 100 98 95 81 100 100 100 100 100 99 100 100 100 100 100 100 100 100 100 100 100 100 100 100 100 100 100 100 100 100 100 100 100 98 94 96 96 98 99 98 83 82
93 98 100 92 83 95 100 100 100 100 100 100 99 100 100 100 99 90 98 100 100 100 100 100 100 100 100 96 88 83 83 82 92 99 90 75 94 80 73 84 91 80 67
96 92 96 94 96 90 99 100 100 100 97 100 100 90 77 99 100 100 95 98 100 99 97 100 99 98 98 90 81 81 87 97 96 95 90 85 92 95 88 83 72 64 62
66 81 96 98 98 94 99 100 100 96 91 100 100 78 87 100 100 96 90 95 92 95 96 100 100 91 77 66 83 94 93 96 91 77 86 74 69 68 68 53 53 55 51
60 66 80 100 100 99 100 93 88 86 97 100 94 82 86 90 94 96 79 80 71 70 78 68 64 65 78 74 81 88 84 73 68 64 57 58 59 51 53 43 41 39 31
59 56 99 58 57 80 83 92 95 98 87 95 98 93 78 78 98 100 99 91 89 79 64 63 66 71 60 50 52 53 52 50 48 52 52 43 47 41 36 33 27 21 19
59 63 89 63 64 63 81 100 100 100 99 100 100 100 100 100 99 100 100 99 100 79 63 64 63 53 50 45 46 48 50 49 48 44 42 35 32 29 21 18 16 11 7
50 52 62 61 62 57 68 97 100 100 100 94 100 100 100 99 89 82 77 72 61 65 52 42 42 42 41 40 44 43 42 39 36 30 26 24 16 13 11 7 5 5 4
67 70 82 86 86 88 87 98 100 97 98 95 89 75 77 80 68 55 53 48 41 43 44 42 38 40 43 43 38 34 33 26 21 17 14 12 9 6 5 4 4 3 2
77 88 93 92 90 85 84 84 89 91 88 83 82 75 66 57 49 47 42 37 37 32 35 42 41 36 33 33 25 21 18 15 11 8 6 4 4 3 3 2 2 2 2
72 76 81 86 86 80 81 78 78 83 81 68 64 56 42 39 39 31 26 27 33 38 33 34 38 30 21 19 17 14 9 6 4 4 3 3 2 2 2 2 2 2 2
70 72 71 71 67 67 68 68 67 62 54 42 34 34 27 25 28 35 35 32 28 30 30 22 21 18 12 8 6 4 4 3 3 3 2 2 2 2 2 2 2 2 2
53 53 50 47 46 44 43 38 31 26 27 29 27 26 29 33 30 27 24 23 20 18 16 12 8 5 4 4 4 3 2 2 2 2 2 2 2 2 2 2 2 1 2

GFSGL_250_rhum_057.txt.gz
RH
56 42 39 33 28 24 22 36 71 99 100 100 100 100 100 100 100 100 100 100 100 100 100 100 99 100 100 100 100 100 100 100 100 100 100 86 74 81 91 100 100 100 100
77 54 45 39 43 39 31 26 24 24 26 33 52 70 76 77 79 82 78 83 86 100 100 100 100 100 100 100 100 100 100 100 100 89 100 73 82 98 100 100 100 100 54
65 100 66 52 50 46 40 44 36 31 28 26 27 28 31 38 44 57 63 78 82 87 98 99 100 100 100 100 100 100 97 96 82 83 73 97 100 100 98 92 61 73 75
34 64 100 90 50 62 52 48 42 51 51 40 33 30 29 29 32 37 40 40 38 42 48 54 64 73 87 90 89 85 77 83 92 88 59 73 60 61 61 62 72 78 80
44 36 47 52 100 100 81 62 51 45 40 49 58 54 51 46 42 38 34 33 34 44 53 57 59 59 61 60 67 73 76 55 50 42 50 52 52 57 60 61 72 77 74
48 41 36 50 73 86 80 67 74 74 58 43 53 75 93 69 48 63 71 54 60 52 51 44 41 37 36 35 42 41 46 48 47 50 52 62 63 72 79 78 73 81 98
62 51 40 36 43 53 55 100 76 88 92 77 62 50 75 90 74 99 87 60 46 68 83 84 80 75 70 65 62 62 60 64 68 69 73 87 99 100 100 100 100 100 100
71 65 54 48 37 37 46 66 99 99 100 100 90 70 59 57 60 51 49 48 45 55 49 70 81 100 100 100 100 100 100 100 100 100 100 100 100 100 100 100 100 100 100
68 72 86 82 57 46 46 47 51 72 100 100 100 100 100 98 77 76 75 91 98 87 87 76 66 66 92 99 100 100 100 100 100 100 99 98 99 100 99 100 100 97 100
72 75 83 85 87 65 50 52 55 78 97 95 96 100 100 100 100 100 100 100 99 100 100 99 100 100 100 100 100 100 99 100 100 100 100 100 99 88 88 93 91 99 100
63 91 94 88 100 100 100 91 58 56 66 96 100 98 100 100 82 99 92 91 96 88 100 100 100 100 100 100 100 100 100 100 100 100 100 95 100 100 100 100 100 99 86
100 100 100 90 80 100 100 100 100 80 62 69 100 100 100 100 100 100 97 96 75 74 100 100 100 100 100 100 100 100 100 100 88 88 100 100 100 100 96 83 90 88 84
100 100 100 97 78 87 100 100 100 100 96 90 90 96 100 98 100 100 100 100 100 100 99 100 100 100 100 92 86 85 84 96 100 100 94 93 95 94 89 86 80 88 90
100 100 98 96 99 99 90 86 80 97 100 100 100 100 100 100 100 100 100 100 100 100 100 100 98 77 75 78 82 100 100 100 100 100 95 94 83 87 82 81 83 82 95
64 62 66 68 72 85 88 93 100 100 100 95 98 93 98 98 100 100 100 100 100 100 99 88 97 98 99 100 100 100 93 85 79 77 77 88 89 80 76 73 67 67 62
32 33 34 39 47 55 63 85 97 98 96 96 96 99 98 93 95 93 92 100 99 100 100 100 100 99 100 89 81 87 92 93 94 81 79 77 78 71 69 57 50 51 57
24 26 33 35 54 92 79 79 99 100 100 100 100 100 96 100 100 89 74 86 88 93 99 100 98 96 93 94 100 100 100 92 85 95 73 86 78 70 60 60 53 46 43
51 61 61 50 47 44 83 94 100 100 96 100 100 100 100 100 100 100 100 100 90 93 100 100 100 96 100 100 97 78 87 87 90 81 77 73 57 56 51 41 37 39 31
82 63 83 67 76 69 98 100 100 100 100 100 100 100 100 100 100 95 100 100 100 92 91 98 100 76 74 84 97 98 96 96 74 66 55 47 46 37 36 36 29 23 20
100 100 100 98 89 96 100 100 100 100 100 100 100 98 99 100 95 87 93 100 100 100 96 100 98 98 94 84 85 94 76 60 58 57 51 40 31 30 23 21 18 12 11
100 100 100 100 100 100 100 88 93 89 91 100 100 100 100 86 88 91 90 100 100 100 100 100 90 87 93 98 82 52 53 50 38 31 32 28 16 18 16 12 8 5 5
81 85 100 100 100 100 100 100 100 96 97 95 94 95 100 100 90 78 82 87 83 83 86 88 82 79 60 52 52 43 34 30 34 26 17 16 13 12 8 5 4 4 3
85 93 98 100 100 100 100 100 94 93 76 82 87 88 85 85 88 89 86 84 76 70 63 55 48 45 45 36 30 32 29 22 18 16 14 12 8 5 4 4 3 2 2
71 78 83 66 74 74 64 70 70 82 85 83 82 74 68 64 68 69 71 70 55 46 42 40 35 30 33 31 21 17 18 15 12 9 6 5 4 3 2 2 2 2 2
40 59 68 67 60 62 70 61 53 58 67 65 63 62 66 54 49 50 46 44 41 42 36 30 34 25 17 17 16 13 10 7 5 5 4 3 2 2 2 2 2 2 2
60 61 59 60 66 73 77 67 60 52 48 50 47 43 39 38 35 34 33 30 26 22 21 17 16 17 15 12 8 6 5 4 3 2 2 2 2 2 2 2 1 1 2

GFSGL_250_rhum_060.txt.gz
RH
28 37 35 40 44 36 30 43 83 100 100 100 100 100 100 100 100 100 100 100 100 100 100 100 100 100 100 100 93 85 91 97 76 99 100 100 100 100 97 85 98 91 63
36 28 26 35 39 41 39 37 31 27 29 40 64 83 100 100 100 100 100 100 100 100 100 100 100 93 80 77 80 90 86 83 83 98 100 100 100 98 84 80 58 40 56
41 46 31 32 42 42 44 48 43 42 44 34 28 26 27 27 28 38 46 60 70 70 58 52 53 53 54 58 58 60 61 64 71 60 68 81 81 87 88 65 54 51 56
41 81 61 45 37 41 75 78 40 45 50 45 43 47 37 30 32 31 30 29 29 31 33 32 34 35 36 35 36 42 45 48 50 49 53 60 57 50 46 49 49 55 62
49 67 87 58 44 38 29 39 72 99 80 62 56 45 40 38 42 44 48 58 54 58 86 84 69 59 69 75 78 66 71 70 63 50 43 48 54 56 65 82 94 94 86
51 48 100 87 77 66 48 34 34 56 98 71 64 53 66 74 64 55 54 61 70 46 81 94 53 38 39 46 50 51 66 68 78 74 72 77 93 98 96 75 70 72 49
70 62 99 100 100 92 63 46 40 37 32 36 56 92 71 88 100 94 80 68 62 67 49 48 52 47 57 61 66 64 63 80 95 92 94 89 68 88 83 77 61 67 88
88 59 59 98 100 92 77 61 55 46 38 37 40 52 79 88 92 91 97 98 91 84 79 100 91 89 100 99 89 97 98 99 99 94 77 89 97 93 98 100 100 100 100
82 53 42 39 46 67 85 86 57 67 66 49 39 46 43 48 76 92 96 100 100 100 100 97 100 100 92 92 71 60 62 72 86 98 100 100 100 100 100 100 100 100 100
76 65 63 100 100 100 100 100 75 54 66 63 87 61 74 50 50 46 51 57 62 62 60 58 60 70 78 78 78 83 100 100 100 100 100 100 100 99 87 76 89 73 63
78 78 84 100 100 100 100 100 84 96 100 94 66 88 100 100 96 87 86 70 55 55 68 66 61 67 76 88 98 98 100 96 92 100 95 74 82 69 60 64 65 64 71
91 79 94 99 87 87 100 100 100 97 98 100 100 84 62 83 100 100 100 100 100 93 89 96 88 76 79 76 72 76 76 99 100 99 85 70 61 67 83 73 94 98 100
82 68 70 75 84 99 100 100 99 86 93 100 79 63 65 63 96 99 100 100 99 100 100 100 100 100 100 100 100 100 100 100 86 72 70 80 86 100 100 100 99 100 100
85 77 72 99 100 99 99 100 100 100 98 95 100 98 93 90 91 100 98 100 97 100 100 100 100 100 100 100 88 86 96 100 100 100 98 100 100 100 100 100 100 100 100
97 96 89 86 90 89 77 60 65 80 84 76 75 97 82 100 97 99 95 99 100 100 97 98 100 98 100 98 100 90 81 85 91 96 100 100 90 94 100 91 96 100 100
58 49 52 53 49 48 48 48 50 56 67 47 50 59 39 49 78 94 99 89 100 100 100 99 100 85 98 98 87 100 95 97 100 100 100 100 100 95 99 95 99 96 97
26 24 24 24 24 26 25 26 25 25 28 32 49 56 64 86 94 78 84 93 69 88 100 100 100 94 100 96 100 100 100 98 94 100 98 85 98 89 96 99 87 90 82
18 18 17 17 21 21 31 32 45 44 62 88 96 100 100 100 100 100 100 100 100 100 89 100 100 100 100 98 100 98 96 91 95 80 86 90 98 100 93 94 81 84 77
14 14 17 33 25 46 93 92 98 100 100 100 100 100 100 100 100 100 100 100 100 96 89 97 96 95 100 100 89 94 91 87 74 94 91 89 87 80 84 64 49 44 32
16 20 39 93 100 100 100 96 92 100 100 100 99 91 100 100 100 100 100 100 100 100 90 97 100 100 100 100 100 97 77 92 75 86 83 77 79 66 53 43 26 21 18
33 32 35 67 92 100 100 100 66 65 78 77 73 83 92 100 100 99 74 94 88 85 86 86 86 90 80 74 79 92 72 86 83 79 64 52 52 34 28 25 16 16 11
31 29 40 60 73 71 74 84 100 100 100 100 95 88 91 97 96 98 96 89 95 99 98 71 74 83 93 87 83 82 82 68 47 40 37 30 26 21 16 14 9 8 6
21 31 52 50 47 64 82 91 100 100 96 92 100 100 100 100 100 100 96 100 95 69 77 84 66 70 68 70 59 41 37 39 34 30 24 17 14 12 9 7 5 4 4
20 25 26 36 50 56 63 81 84 80 82 83 90 91 88 92 82 76 74 66 67 61 66 66 51 44 45 42 35 28 25 18 17 15 12 12 9 6 5 4 3 2 2
22 26 30 26 30 36 40 45 53 58 54 53 66 66 57 52 47 51 58 58 56 45 38 38 34 25 23 20 20 18 15 12 10 9 8 6 5 4 3 2 2 2 2
24 26 26 27 27 28 34 36 44 46 48 48 47 44 44 42 50 53 44 35 30 26 26 23 19 18 16 16 14 12 9 7 6 5 5 4 2 2 2 2 2 2 2

GFSGL_250_rhum_063.txt.gz
RH
40 25 22 22 23 30 29 32 55 92 100 100 97 97 88 86 99 100 100 100 99 100 100 100 100 100 100 100 100 100 100 100 100 98 87 84 92 100 94 81 90 92 100
56 42 38 28 29 26 32 39 36 32 39 57 72 88 100 100 100 100 100 100 100 100 100 100 100 100 100 100 100 100 99 93 63 52 42 44 51 58 62 63 74 71 60
100 85 67 53 38 23 37 30 30 36 39 39 34 34 36 34 34 33 31 32 29 36 51 48 38 36 36 36 36 34 35 37 39 42 39 43 49 48 45 43 48 49 51
80 86 92 83 56 41 31 36 26 31 30 30 42 38 49 38 38 40 40 41 40 40 35 33 44 50 63 91 95 72 54 58 67 67 56 71 72 84 85 80 84 81 81
80 98 100 100 88 62 36 32 47 41 51 45 29 32 41 79 66 39 38 44 44 46 50 52 56 62 69 50 43 48 42 40 40 46 49 47 51 46 46 55 55 63 67
52 53 100 100 100 78 52 58 72 99 88 75 44 39 34 29 30 43 53 45 40 53 66 83 86 74 65 74 72 58 61 76 58 70 86 90 99 98 91 80 100 100 98
51 66 79 86 97 95 73 55 58 91 97 98 72 61 54 42 36 32 33 44 87 84 81 78 80 87 85 74 69 71 75 86 91 100 97 97 68 56 54 64 71 72 78
74 83 93 76 52 58 39 78 76 56 43 44 42 66 74 69 66 56 46 37 37 46 71 79 84 72 71 73 69 76 81 80 82 88 81 70 67 68 64 76 88 100 100
85 92 98 98 81 98 96 89 97 76 64 60 97 100 100 98 71 66 63 54 42 61 82 83 87 86 54 57 61 60 51 48 50 59 64 60 89 80 70 65 81 93 100
91 77 67 66 80 61 74 100 96 67 68 68 52 97 100 100 100 100 100 100 75 51 60 61 61 66 66 70 68 67 72 86 68 63 78 63 63 67 93 74 71 71 84
93 98 80 80 86 80 84 79 97 90 66 69 65 99 94 100 100 100 100 94 97 96 98 88 74 75 73 91 100 100 100 100 94 65 84 97 100 94 100 99 86 89 79
100 98 100 100 100 100 100 100 98 99 89 75 76 98 100 100 100 100 100 100 100 100 100 83 91 84 90 81 90 100 92 100 100 100 92 98 100 99 100 100 100 100 90
100 100 100 100 100 100 100 100 96 89 94 86 69 68 75 98 100 100 100 100 100 100 88 98 100 100 100 99 100 100 100 100 100 100 100 100 100 100 94 100 100 100 99
100 92 95 96 100 100 100 100 100 100 100 94 81 78 73 85 96 87 95 99 100 92 100 100 96 100 100 100 96 100 100 100 100 100 100 100 99 96 86 76 80 78 84
92 100 97 100 100 100 100 100 100 100 99 94 88 78 82 94 98 77 78 100 71 74 100 100 82 97 100 98 98 100 100 100 99 100 100 99 100 97 99 80 68 84 91
60 55 53 53 58 65 63 65 60 57 58 55 51 55 63 65 100 96 99 100 57 62 100 100 100 100 100 100 100 100 92 100 100 100 92 96 92 62 65 89 87 74 69
49 58 63 64 54 55 65 49 42 36 31 26 24 22 23 25 37 34 34 69 36 48 100 100 100 82 73 85 100 94 100 100 100 96 80 65 72 74 78 88 78 93 96
52 50 52 49 42 35 27 24 20 20 19 18 17 17 18 35 86 68 26 26 33 40 58 96 71 71 76 98 100 100 100 100 100 100 100 100 100 75 83 89 100 99 98
23 23 22 22 21 18 16 15 14 14 14 15 21 21 26 43 34 41 67 62 89 88 100 90 100 100 100 100 100 100 100 98 97 92 99 99 95 83 91 100 91 90 62
17 15 14 12 10 10 10 11 12 12 13 38 50 75 72 58 100 95 95 93 98 100 100 100 100 100 100 100 100 100 100 100 100 98 83 93 94 80 77 75 82 69 57
9 9 9 9 8 9 12 13 14 13 14 24 37 62 72 93 100 100 100 100 100 99 100 100 100 100 97 92 100 97 87 95 87 90 79 68 81 67 68 67 71 39 35
10 11 12 11 11 13 15 17 20 24 21 23 39 53 75 81 95 100 100 99 100 100 100 100 100 100 100 100 100 100 100 80 73 62 60 53 47 54 52 44 43 26 13
6 6 7 8 11 14 17 20 23 28 38 42 41 42 57 59 58 59 59 63 68 70 65 60 56 62 60 44 46 44 38 40 43 37 41 46 40 39 31 27 15 10 7
7 7 7 8 10 12 16 20 27 28 36 45 54 48 51 57 59 58 67 66 60 64 46 45 53 56 50 45 46 45 46 48 47 38 31 35 28 18 15 9 6 5 4
9 9 9 10 12 14 15 17 21 20 31 35 36 41 42 42 38 47 53 55 62 52 48 47 49 55 55 59 41 36 36 31 28 27 22 18 12 8 7 6 4 3 2
13 12 12 13 13 14 15 17 18 20 24 36 57 47 46 54 54 51 46 42 42 41 42 48 48 37 30 25 20 21 22 19 18 17 10 7 6 5 4 3 2 2 2

GFSGL_250_rhum_066.txt.gz
RH
53 93 64 48 40 38 26 23 29 31 36 88 95 82 76 75 71 66 63 64 56 59 74 66 76 79 75 80 71 77 93 100 100 100 100 100 98 78 56 40 41 45 50
45 49 79 67 62 57 54 43 30 25 31 38 38 53 99 100 100 100 100 100 100 100 100 100 100 100 100 100 100 100 100 100 100 87 48 41 43 57 59 56 62 76 75
73 65 61 76 66 71 77 62 39 35 24 24 26 29 37 41 43 44 45 53 62 69 68 61 55 54 48 40 29 28 30 34 49 49 61 48 53 55 48 44 45 46 52
55 53 63 69 74 77 86 90 76 57 42 30 26 30 30 28 30 26 28 36 52 60 41 39 40 40 47 48 48 48 49 53 62 56 41 44 42 60 63 61 57 77 82
78 68 67 57 55 68 76 97 100 98 72 53 38 36 73 79 80 67 36 32 34 30 29 36 40 45 44 42 45 49 49 56 59 59 71 75 81 88 100 94 89 92 96
64 85 76 68 54 48 69 97 99 100 94 77 67 45 44 88 67 55 37 33 32 32 32 30 34 39 40 57 66 62 55 59 56 77 67 62 77 92 91 89 92 88 88
71 82 84 82 74 61 69 69 89 98 78 94 92 72 66 66 73 62 64 49 46 64 76 64 62 64 44 42 50 58 67 82 77 77 72 71 59 62 67 69 67 76 74
70 85 96 87 74 79 72 56 75 77 64 60 85 68 87 100 94 91 92 100 100 92 78 90 98 78 80 62 62 56 51 56 58 59 58 57 57 66 96 94 88 80 74
63 64 68 87 84 69 62 69 92 90 70 70 84 100 96 98 100 98 84 75 73 100 100 100 100 100 100 89 100 98 84 83 70 72 77 80 80 84 78 79 93 98 99
78 82 84 77 77 72 96 100 100 100 90 89 70 58 60 93 100 100 100 78 77 77 99 99 100 100 100 100 100 100 100 100 100 100 100 100 100 94 98 81 100 100 94
74 66 66 64 68 71 100 100 100 94 82 70 55 76 100 100 100 100 100 100 91 78 93 97 100 100 100 100 100 100 100 96 100 97 100 98 100 98 100 100 100 100 100
61 54 57 62 79 97 100 100 100 100 100 100 100 98 100 100 100 100 99 100 100 97 97 100 87 88 94 100 100 100 100 95 89 100 89 98 98 93 100 100 100 100 100
72 69 62 72 80 90 100 100 100 91 99 100 100 100 100 100 76 67 100 95 87 76 99 100 85 92 91 89 99 100 100 100 96 100 100 94 100 98 73 100 99 100 100
73 62 78 89 100 100 86 93 94 96 100 100 100 100 100 100 100 100 98 90 83 86 87 99 99 100 94 100 100 100 81 100 100 100 100 100 100 100 86 100 99 100 96
84 100 100 100 100 100 100 100 100 100 100 97 91 82 73 81 85 75 78 100 97 93 96 97 100 100 100 100 100 97 100 87 86 100 100 100 100 85 100 100 100 100 100
100 100 100 100 100 100 100 100 90 90 89 77 77 100 90 96 99 85 92 82 83 100 98 85 89 100 100 97 98 100 100 100 100 97 100 100 95 100 100 98 100 100 100
100 99 91 93 90 74 70 70 62 57 62 76 95 84 71 64 60 62 58 53 33 35 43 41 39 51 100 100 100 100 100 100 100 100 100 100 100 100 100 92 88 81 67
90 82 80 75 66 56 54 53 58 72 70 53 54 55 45 30 25 21 20 19 18 18 19 20 23 31 62 41 41 53 75 84 100 100 100 100 100 100 100 83 72 68 67
66 53 47 44 40 43 34 26 24 26 21 21 21 19 20 20 18 16 14 12 12 12 13 16 18 20 25 36 50 90 80 83 77 100 100 52 97 91 89 83 65 68 87
36 42 42 33 20 17 16 16 15 14 13 13 14 13 12 11 11 11 11 12 13 18 28 24 23 20 36 67 74 87 73 43 41 52 57 66 80 71 57 70 86 77 58
23 21 19 17 14 10 8 7 7 7 7 7 7 8 10 10 12 14 14 17 21 33 48 44 51 64 66 79 90 90 69 72 76 76 74 74 70 63 63 68 60 57 69
16 12 10 9 8 8 8 8 7 6 6 7 9 10 12 12 12 14 16 21 25 32 34 39 48 48 54 53 40 41 49 58 68 68 65 61 62 62 63 62 66 58 51
9 10 9 7 6 6 6 6 6 6 6 6 8 10 13 14 14 15 16 19 23 35 37 38 36 45 52 48 46 51 54 54 57 54 61 67 58 57 57 55 56 55 25
7 6 6 6 7 8 8 8 8 8 8 8 8 10 13 16 19 19 18 19 21 23 26 28 33 38 38 41 45 53 58 57 62 70 69 56 47 36 44 38 21 11 10
8 9 10 10 10 10 10 10 10 10 9 9 9 10 13 16 19 18 18 21 24 23 22 23 26 34 39 40 37 34 31 31 22 22 25 26 22 20 14 15 16 9 9
11 11 10 10 10 10 10 10 11 11 11 10 10 10 11 12 13 15 17 19 20 19 16 17 19 19 20 21 20 19 19 19 17 16 19 19 15 14 12 9 7 5 4

GFSGL_250_rhum_069.txt.gz
RH
56 43 44 45 56 53 48 44 42 38 36 28 24 26 43 100 100 100 100 100 100 100 100 100 100 99 92 80 82 80 80 83 89 100 100 100 100 100 100 98 77 47 47
88 79 54 47 50 51 67 58 52 57 59 41 30 22 24 26 32 54 82 86 86 89 91 94 100 100 100 100 100 100 100 96 88 92 58 39 38 50 52 41 46 49 43
91 81 87 74 56 64 72 70 51 41 59 56 49 46 27 28 26 28 30 31 32 33 38 46 52 58 51 46 40 36 35 36 37 36 43 46 52 60 63 62 70 74 73
100 88 84 68 63 58 55 52 50 54 51 72 74 72 59 46 39 28 55 66 55 53 44 36 35 32 26 26 28 34 35 33 36 40 43 47 49 50 63 72 76 81 77
100 100 89 80 74 67 64 66 59 50 58 64 86 86 80 73 67 62 48 36 39 52 54 54 40 45 46 54 57 60 53 49 48 37 37 52 92 81 92 87 77 78 89
99 99 96 79 68 62 62 80 83 69 72 69 57 62 70 77 59 71 69 77 59 70 81 78 70 46 51 93 94 100 98 61 95 60 60 59 59 63 61 62 61 56 64
99 85 83 77 82 87 85 97 99 91 89 95 86 76 78 88 97 73 53 68 86 87 96 68 71 75 95 78 55 53 63 69 86 100 99 85 79 92 98 88 93 100 83
99 98 91 92 88 74 76 94 100 100 100 100 100 93 81 87 94 88 71 60 67 82 69 58 70 76 75 67 81 79 75 92 86 95 100 100 100 99 94 100 100 100 99
88 91 86 90 75 67 72 81 86 88 92 91 89 87 93 88 94 88 98 97 91 80 72 93 99 100 100 100 100 97 100 90 89 84 91 76 89 88 98 100 100 93 100
84 85 84 94 91 79 82 90 79 69 84 87 74 60 78 100 100 97 100 99 90 88 100 100 100 100 100 100 100 100 99 93 78 86 100 100 100 100 100 100 100 91 100
46 45 47 51 56 58 69 82 87 100 100 96 86 78 86 96 99 99 85 69 76 80 85 96 100 100 100 100 100 100 91 85 86 93 100 80 95 100 100 99 98 100 100
65 72 80 81 78 71 81 88 88 85 78 74 77 100 100 100 100 100 100 100 100 98 87 72 94 100 100 100 100 100 100 97 100 100 96 100 100 98 100 100 100 100 100
76 84 78 88 96 96 87 86 77 60 62 67 68 80 95 100 100 100 99 100 100 100 100 100 100 100 100 100 100 100 93 82 100 100 100 96 77 100 100 100 100 100 100
73 68 66 67 69 74 85 87 78 80 83 75 51 52 67 100 100 100 100 100 100 100 100 100 98 100 100 83 100 100 100 100 95 100 100 100 94 95 100 94 100 100 99
83 89 91 91 88 78 71 67 63 55 48 50 52 66 84 87 98 100 99 94 96 87 84 86 98 100 100 100 100 100 98 100 100 100 100 100 100 100 100 100 88 100 93
93 82 75 93 82 81 64 73 76 73 86 100 100 100 100 99 97 100 95 87 82 90 87 82 98 97 85 89 95 100 100 100 94 100 100 100 100 100 100 100 98 96 88
74 79 78 72 57 62 65 73 99 100 100 100 100 100 100 100 97 89 84 77 78 82 97 96 95 100 97 69 68 78 84 62 73 66 55 64 65 90 77 100 100 100 100
70 70 59 56 72 96 97 82 85 89 80 82 79 74 67 62 57 59 58 64 60 50 39 38 36 35 30 27 24 26 26 23 25 25 21 24 30 33 71 85 100 100 100
80 88 95 100 100 96 93 92 90 62 53 46 38 32 28 27 23 22 21 20 19 20 19 18 17 19 19 18 17 16 16 14 14 14 16 16 21 27 34 40 58 75 78
98 99 92 82 83 76 60 46 37 39 29 20 16 15 14 13 12 11 11 11 10 11 11 10 10 10 11 12 12 12 12 14 15 17 20 26 23 20 22 25 29 47 62
78 53 39 43 58 49 27 20 19 17 15 12 10 9 7 8 8 8 9 9 10 10 10 11 12 12 12 14 14 14 15 16 17 20 28 30 25 24 29 41 46 51 60
34 25 25 25 23 20 17 15 12 11 10 9 9 10 8 6 6 6 6 6 6 6 7 9 12 14 14 15 16 17 19 21 24 29 32 35 34 34 35 36 37 35 36
22 22 19 16 14 12 11 10 10 11 11 8 6 6 6 6 7 7 7 7 7 7 7 8 10 12 15 17 18 18 19 19 20 22 24 26 28 31 36 40 41 38 39
15 13 11 10 10 13 13 9 7 7 7 7 8 8 9 9 9 8 8 9 9 8 8 8 9 10 12 14 14 13 14 14 15 16 17 19 21 22 22 22 24 22 23
10 11 14 12 9 8 8 8 8 8 9 10 9 9 9 9 9 9 9 9 9 10 10 10 10 10 9 10 10 10 10 11 12 12 12 12 13 13 13 13 14 13 12
8 8 7 7 8 9 9 9 9 10 11 11 10 11 11 11 11 11 11 10 10 10 10 10 10 11 11 11 11 11 10 10 11 11 11 10 9 8 7 7 6 5 5

GFSGL_250_rhum_072.txt.gz
RH
85 57 39 35 33 45 43 40 37 36 33 35 37 30 24 23 26 38 81 97 97 91 98 98 100 100 100 98 99 100 96 98 95 100 100 100 97 85 61 42 36 37 45
74 80 62 55 53 45 44 42 44 40 36 34 36 40 36 34 25 24 25 25 34 51 81 98 100 100 100 99 100 100 98 90 85 81 64 52 43 46 50 51 56 58 57
65 79 99 81 58 66 72 60 50 44 41 39 31 38 48 44 49 40 38 36 34 42 36 39 33 30 33 34 39 40 36 31 30 30 34 47 44 44 42 36 40 46 65
91 86 98 95 65 73 79 82 70 63 50 48 42 37 36 53 64 66 66 51 44 40 50 66 58 62 51 44 47 46 35 33 38 46 50 37 44 88 95 74 55 57 56
51 68 85 86 88 74 71 74 81 86 69 64 58 54 53 47 45 51 69 75 70 58 51 53 55 51 51 53 63 60 45 53 52 43 42 50 64 95 100 100 96 94 94
100 100 99 95 88 83 89 80 76 74 74 74 72 71 75 76 76 63 60 60 56 55 67 75 67 65 76 70 78 72 49 43 49 54 62 57 69 64 67 97 100 71 78
80 96 100 100 100 100 100 91 70 64 63 70 74 82 88 90 88 78 70 70 69 65 72 93 88 94 70 74 79 56 50 57 78 72 81 98 92 82 89 73 65 70 68
100 100 98 90 92 100 100 99 93 80 63 71 73 84 89 88 95 89 90 84 63 62 70 76 87 94 84 68 57 58 51 42 38 51 82 97 79 74 96 86 96 99 94
100 100 100 100 89 86 84 81 81 73 65 70 70 62 71 85 94 100 100 100 92 91 86 95 79 56 64 76 66 68 66 68 69 73 100 100 100 100 85 86 95 100 92
100 100 100 100 100 100 98 80 68 65 73 65 73 74 75 84 90 92 100 100 100 88 99 93 92 72 87 100 100 100 97 100 100 100 100 100 96 100 100 100 87 100 100
100 100 100 100 100 100 100 100 100 100 100 97 88 87 73 63 64 72 83 92 96 88 91 98 100 100 100 100 100 100 100 92 93 100 99 97 100 100 97 100 100 96 100
95 93 100 100 98 100 100 100 100 100 100 100 100 100 100 100 100 100 95 87 86 83 77 79 80 98 100 100 98 100 100 100 100 100 100 100 100 100 100 100 100 100 100
34 40 38 41 44 49 57 65 81 85 88 100 100 98 90 96 100 100 100 100 100 100 96 84 79 66 61 67 89 100 100 100 100 100 100 100 100 100 97 100 94 98 100
78 55 46 42 40 49 55 63 65 59 69 79 88 94 94 100 96 87 90 92 97 100 100 97 75 58 65 74 93 99 100 100 100 96 94 100 100 100 100 100 100 100 100
100 96 81 77 68 74 73 66 61 62 59 60 64 66 67 69 73 63 52 53 57 53 61 62 74 88 86 94 100 100 98 90 84 96 93 100 100 100 100 100 100 100 98
80 71 68 65 63 59 63 58 49 56 56 60 52 44 45 50 49 54 52 55 66 65 59 61 68 92 98 97 88 86 86 82 91 95 100 100 99 100 100 100 100 96 95
77 78 85 88 70 61 66 78 80 92 87 63 78 79 67 62 55 57 62 79 90 96 96 82 97 86 97 73 64 67 66 51 40 40 48 64 69 64 59 80 79 80 86
100 96 100 93 83 70 63 59 64 71 94 78 71 67 50 52 76 89 85 91 89 88 81 79 75 53 44 36 34 34 34 38 35 32 28 32 32 27 24 25 27 26 23
70 84 90 86 95 100 100 98 94 91 86 71 43 54 75 79 82 82 60 41 36 30 24 19 17 16 16 16 15 15 15 16 18 19 19 20 20 19 17 16 16 16 15
81 79 75 76 82 75 57 57 55 46 42 68 76 74 57 41 36 36 21 17 16 14 13 11 10 9 8 8 8 8 8 8 9 10 11 11 12 12 13 14 14 15 15
58 57 60 62 69 55 42 45 59 56 53 67 58 37 24 19 19 17 14 12 10 9 8 9 9 6 6 5 6 6 6 7 8 8 8 10 12 13 13 14 15 15 16
52 46 50 54 57 60 63 60 55 34 23 21 19 17 15 13 12 10 9 9 9 7 6 5 5 7 8 8 8 7 7 7 6 6 6 7 9 10 12 13 13 13 13
34 29 24 22 21 20 20 20 19 17 16 14 13 12 11 10 9 10 9 6 6 6 7 8 8 8 9 9 9 9 9 8 8 7 7 7 7 8 9 10 11 12 12
20 19 18 17 17 15 14 14 12 11 11 11 10 9 10 11 8 6 7 8 8 9 9 9 9 9 8 8 9 10 10 10 9 9 9 8 8 8 8 9 9 9 9
14 14 13 12 12 11 11 10 10 9 9 10 11 8 6 6 8 8 8 7 9 10 9 9 10 9 9 8 8 7 7 7 7 6 6 6 6 6 7 7 7 7 7
11 10 10 9 9 9 10 10 10 9 8 7 6 7 8 8 8 9 10 10 9 9 9 8 8 7 7 7 7 6 6 6 6 6 6 6 6 6 6 6 5 5 5

GFSGL_250_rhum_075.txt.gz
RH
47 48 45 44 54 54 42 38 38 41 39 29 30 37 44 56 83 100 100 100 100 100 100 100 100 100 100 100 100 100 100 100 100 100 100 100 100 100 100 100 94 73 55
44 51 67 62 56 52 52 45 39 37 37 32 32 33 32 30 28 30 34 35 36 43 68 98 100 100 100 100 100 100 100 100 100 100 100 100 96 82 69 50 40 46 46
48 46 59 76 94 94 69 51 50 53 50 45 44 41 33 36 36 36 36 43 42 43 41 29 23 31 50 73 74 76 77 78 80 73 55 50 43 40 41 47 50 42 40
52 48 47 51 65 85 100 91 82 97 90 83 57 53 51 44 37 33 34 37 42 47 51 48 49 55 47 52 44 39 48 41 38 44 53 42 41 51 56 62 49 58 58
66 52 52 52 53 73 94 96 74 67 74 78 78 77 66 58 50 47 46 47 47 51 56 64 65 64 65 60 58 57 67 81 78 72 73 71 58 63 63 67 78 86 88
90 65 54 54 59 65 70 77 71 73 76 72 79 89 88 61 75 59 55 58 60 62 58 52 51 59 83 71 59 59 68 58 59 53 86 80 61 67 68 74 74 100 100
97 96 75 63 63 69 80 84 95 80 86 90 85 86 80 72 64 64 65 76 82 80 84 82 69 55 48 46 46 52 64 61 58 81 71 92 74 53 47 69 89 77 93
100 98 70 76 68 79 100 100 100 97 87 91 88 80 67 62 64 58 53 54 62 69 71 82 84 90 96 78 72 67 67 67 53 59 58 59 66 70 70 58 52 54 91
97 96 95 90 85 92 98 100 98 92 98 96 97 84 73 80 73 70 74 78 72 67 66 69 81 83 82 79 74 70 61 58 60 64 58 56 58 60 58 56 55 66 72
87 92 97 97 98 100 96 82 90 83 94 88 87 80 76 87 95 90 95 99 98 96 100 87 85 91 93 98 100 100 100 100 99 98 100 98 70 56 56 61 67 77 81
100 100 100 99 84 74 87 98 90 79 83 86 79 71 73 66 57 63 61 61 62 60 55 56 66 75 82 85 94 97 100 100 100 100 100 96 100 100 100 100 100 100 100
100 100 100 100 100 94 89 92 91 98 100 100 100 100 100 100 100 100 100 100 100 100 100 100 98 93 77 65 64 80 83 74 73 87 90 94 98 95 96 100 100 100 100
100 100 100 95 84 84 97 94 99 93 100 100 100 100 100 100 100 100 100 100 100 100 100 100 100 100 100 90 88 98 99 89 78 62 56 61 74 92 86 86 89 100 100
98 100 90 95 99 89 90 95 98 97 92 82 89 73 40 43 45 48 57 56 60 60 73 80 80 79 81 87 90 83 73 62 60 79 88 63 59 59 59 59 48 65 82
46 42 41 42 39 42 51 54 42 34 32 36 38 37 38 39 41 46 48 52 52 48 44 47 50 55 61 63 67 63 59 60 60 64 68 72 69 61 61 63 72 83 79
99 98 89 75 60 59 60 50 48 58 86 67 65 54 52 66 76 68 61 51 50 50 50 58 58 66 74 72 72 60 58 58 68 80 80 75 77 80 82 82 73 77 79
91 87 92 100 100 100 100 100 100 81 60 68 65 62 82 93 72 71 71 64 66 84 67 56 71 68 73 52 49 45 41 35 34 28 28 28 28 26 30 27 21 22 23
100 100 98 87 85 88 78 80 87 88 78 61 56 67 78 77 73 60 55 63 68 68 61 47 48 46 40 37 33 24 22 19 18 16 17 16 15 13 13 12 12 11 11
100 100 100 100 98 95 89 76 76 81 87 83 81 76 81 78 72 62 60 56 51 54 40 36 40 28 22 20 17 17 16 13 11 10 8 8 8 8 8 8 8 8 8
63 63 67 71 76 96 98 99 100 95 77 68 70 70 69 65 45 37 42 48 45 37 26 18 16 15 16 13 12 11 10 8 8 8 6 6 6 6 5 5 5 5 6
71 72 74 76 76 74 72 79 83 72 60 56 56 52 44 40 43 40 38 25 18 16 15 14 12 12 11 9 8 8 8 6 6 6 6 8 8 8 8 8 8 8 8
63 63 60 57 53 49 47 45 44 43 42 41 42 42 32 19 18 17 15 15 13 12 12 11 10 8 8 8 7 6 6 7 7 8 8 8 7 7 7 7 7 7 7
28 26 25 28 29 30 30 28 25 22 19 17 15 15 15 14 13 12 11 11 10 10 9 9 9 8 6 5 6 7 7 7 8 8 7 7 7 7 7 7 7 7 7
25 23 22 20 19 18 18 16 15 15 15 15 14 13 11 10 10 9 9 8 8 8 8 7 6 5 6 7 7 7 7 7 7 7 7 7 7 7 7 8 8 7 7
17 16 16 15 14 13 13 12 12 11 10 10 10 9 8 8 8 8 8 7 6 5 5 5 6 6 6 6 7 7 7 7 8 8 8 7 6 6 6 5 5 5 5
10 9 9 9 9 9 9 9 9 8 8 8 7 7 8 8 6 5 6 6 6 6 7 7 6 6 6 6 7 8 7 6 5 4 4 4 4 4 4 3 3 3 3

GFSGL_250_rhum_078.txt.gz
RH
47 41 49 57 55 48 38 29 38 63 90 100 100 100 100 95 78 64 58 65 79 84 86 86 90 99 93 88 92 96 93 86 87 97 76 59 59 65 70 88 100 100 100
48 36 41 52 61 64 56 38 33 38 37 40 43 44 42 46 61 80 92 99 87 77 63 73 88 96 100 100 100 100 100 91 91 100 100 100 100 100 100 100 100 100 100
55 46 41 49 49 44 49 52 49 41 42 43 43 38 37 36 35 32 27 30 30 33 46 48 41 38 38 39 61 89 92 95 99 100 100 100 100 100 99 96 74 56 51
88 56 41 40 51 61 62 49 52 50 46 47 53 57 54 42 38 32 32 35 35 34 35 39 38 38 42 43 43 42 46 43 47 41 51 60 57 56 55 59 60 68 56
96 72 49 46 47 52 64 75 90 95 98 87 77 72 66 71 60 55 48 42 39 36 34 34 35 34 35 39 44 48 50 58 56 52 50 54 64 76 81 82 84 93 97
89 84 65 61 53 51 49 48 56 60 71 78 86 85 75 72 69 67 65 61 52 48 47 47 45 49 51 52 53 53 51 48 43 47 49 45 74 93 93 80 90 94 93
100 79 72 51 50 55 52 51 56 64 71 67 73 70 71 87 84 79 80 80 71 66 70 75 75 70 73 75 82 82 78 71 65 58 50 45 43 46 60 72 73 69 81
100 74 66 63 56 57 56 55 65 65 71 84 94 92 86 91 97 92 87 84 84 71 60 59 66 70 74 81 92 94 90 79 77 80 82 83 80 74 76 68 66 77 79
100 85 84 88 91 75 51 48 56 60 65 75 98 99 94 99 91 90 96 90 80 74 72 73 72 74 82 86 94 99 96 86 80 80 77 75 77 79 73 73 70 77 78
100 90 82 100 100 96 66 48 52 79 89 83 87 86 79 72 79 82 79 81 73 57 57 72 85 82 68 76 82 87 84 78 70 73 87 84 71 68 68 84 93 94 89
99 100 100 100 100 93 88 92 97 100 99 83 64 67 61 55 74 70 64 64 80 89 88 100 98 82 63 65 83 93 98 89 89 86 82 83 81 64 64 71 80 87 94
100 100 100 100 100 98 100 100 99 95 84 73 62 56 58 64 70 90 99 97 100 100 99 79 66 58 76 84 88 85 76 85 82 84 95 100 100 96 91 95 99 100 100
100 100 100 100 100 100 99 100 100 100 95 88 87 75 76 89 100 100 100 100 100 100 100 94 100 96 78 71 77 76 67 71 82 92 86 81 79 87 95 95 100 94 93
100 100 98 98 100 100 100 100 100 100 100 97 88 93 99 100 100 100 100 88 99 100 100 99 98 96 67 46 55 64 56 56 62 68 60 51 53 58 61 72 76 69 66
100 100 100 100 100 100 100 100 100 100 100 100 96 92 81 70 66 67 82 85 83 66 52 48 53 45 50 47 48 49 62 57 58 55 56 53 56 70 74 76 73 74 67
100 100 100 100 100 100 100 100 100 100 100 100 100 96 71 64 51 47 38 38 47 46 51 65 62 57 50 52 48 50 57 72 68 52 48 52 48 41 38 34 31 28 27
100 100 98 100 100 100 100 100 100 91 79 62 45 35 40 41 44 56 65 73 77 77 72 78 63 63 61 56 55 61 61 52 45 36 35 36 34 30 23 18 16 17 16
95 92 88 84 78 72 69 65 58 51 45 50 59 65 72 78 84 92 92 81 73 80 81 65 60 62 59 64 51 49 47 39 31 30 25 23 20 17 16 14 13 12 9
66 66 66 64 59 62 64 66 68 77 89 98 100 100 100 87 81 90 89 80 67 66 70 68 63 65 72 65 40 32 31 27 24 22 14 14 13 11 10 9 8 8 8
89 82 78 80 82 79 79 78 81 80 68 69 80 85 94 86 85 86 73 63 63 64 66 69 60 42 41 39 30 24 23 18 16 13 11 10 9 8 8 8 8 6 6
71 68 67 68 67 66 67 66 66 72 73 70 72 81 97 90 89 82 69 66 62 55 50 42 38 32 26 20 16 14 12 11 10 9 8 8 8 8 5 5 6 7 7
68 71 71 65 59 56 52 52 51 52 59 70 73 71 70 68 66 63 55 48 46 43 34 25 19 15 12 11 10 10 9 8 8 8 8 7 5 5 6 6 6 6 7
50 49 46 39 35 36 38 41 42 38 36 36 36 37 36 32 28 22 20 19 18 16 13 11 11 10 9 8 8 8 8 8 7 6 5 5 6 6 6 6 6 7 8
24 21 22 24 24 22 22 22 20 18 16 16 16 16 15 14 12 10 10 10 10 10 9 8 8 8 8 8 7 7 6 6 6 5 5 5 6 6 7 7 7 6 5
22 20 20 18 16 15 15 13 12 11 10 10 10 10 10 9 9 8 8 8 8 8 8 7 7 7 6 6 6 6 5 5 6 6 7 7 6 5 4 4 4 3 3
14 13 12 11 10 10 10 10 10 9 9 9 8 8 8 8 8 7 7 8 7 7 6 6 5 5 5 5 5 6 6 7 6 5 4 4 4 3 3 3 3 3 3

GFSGL_250_rhum_081.txt.gz
RH
71 72 54 48 52 42 41 48 100 100 100 100 97 90 90 96 99 98 95 88 81 82 84 97 96 86 99 100 100 100 100 100 89 72 74 72 68 54 50 49 48 52 57
79 59 68 56 57 46 39 42 51 100 100 100 100 100 100 98 74 76 97 99 100 100 100 100 100 100 100 100 100 90 93 98 99 100 100 100 100 100 100 99 99 100 99
100 55 57 60 57 55 47 38 40 44 85 100 100 100 100 100 100 100 100 100 100 96 93 91 92 98 97 94 98 100 100 100 94 89 93 92 90 88 88 92 96 100 100
100 80 66 54 58 52 55 52 43 38 34 38 43 48 54 57 64 60 45 33 30 28 27 29 31 30 28 29 33 39 40 41 41 39 37 43 47 48 46 47 39 47 54
100 92 92 76 59 53 49 55 56 53 50 45 41 42 44 46 48 50 50 43 42 39 37 35 34 35 34 34 36 37 37 39 40 42 43 46 50 54 60 62 59 57 57
100 100 97 93 90 89 50 38 53 73 73 45 45 50 50 52 65 66 64 60 53 52 50 50 45 40 42 43 45 47 47 46 49 51 52 56 58 60 62 59 59 58 60
100 92 100 95 91 94 89 52 38 48 63 69 78 84 81 77 73 74 72 65 62 56 54 58 57 62 64 59 61 61 52 52 53 54 52 54 69 78 86 93 100 98 96
100 100 100 100 100 100 99 76 45 43 42 46 48 49 56 57 60 55 50 55 51 52 60 68 68 71 66 68 71 66 63 65 75 68 66 68 75 76 88 97 99 100 100
100 100 100 100 84 79 84 67 55 52 50 48 44 40 41 47 53 57 60 60 56 54 61 72 76 86 94 98 77 54 55 55 61 78 74 64 57 55 60 61 59 62 65
100 100 100 100 90 92 78 70 62 54 42 41 50 57 60 68 70 70 69 72 78 80 69 66 78 77 55 53 53 60 64 75 86 88 88 85 78 75 84 86 90 85 75
100 100 100 100 100 99 92 76 77 89 100 100 74 62 62 71 77 92 91 83 69 75 79 72 60 54 53 73 82 78 85 96 96 100 100 100 92 91 76 83 96 91 94
100 100 100 100 100 100 88 96 100 100 100 98 86 92 98 84 71 80 81 68 62 58 56 61 69 84 99 98 97 100 100 98 97 98 100 100 90 89 90 69 66 63 62
100 100 100 100 100 100 100 100 100 100 100 100 99 66 81 55 92 92 73 66 56 56 68 90 99 100 100 100 100 100 100 100 100 100 100 100 100 100 89 78 71 65 62
97 100 100 100 100 100 100 100 95 100 100 100 100 96 83 78 69 72 85 79 85 74 65 69 83 94 84 81 91 91 86 85 88 98 94 77 58 55 49 47 44 50 51
100 100 100 98 98 99 100 100 100 100 100 100 100 100 100 100 95 100 100 100 98 99 96 87 84 90 86 70 67 61 66 69 60 47 54 53 66 54 56 49 52 62 52
93 99 98 100 100 100 99 96 99 100 100 100 100 100 100 100 100 100 100 100 100 100 100 100 93 76 90 81 48 42 48 54 55 59 73 75 71 62 54 52 45 45 42
93 87 84 84 80 90 99 100 100 100 90 100 100 100 100 100 100 100 100 100 100 97 76 71 95 97 93 48 55 61 80 88 92 82 83 95 72 48 46 47 33 23 22
91 93 94 94 83 79 84 90 98 98 96 96 96 97 92 85 83 88 88 84 87 88 94 90 71 45 46 68 97 97 100 96 91 83 84 62 50 41 41 29 20 19 17
86 88 86 85 83 78 75 72 69 64 60 59 60 65 64 70 77 85 92 94 83 63 54 54 62 80 97 100 100 90 90 97 90 67 51 46 46 29 27 19 16 14 12
80 92 96 95 91 92 93 90 88 88 86 84 81 86 87 85 80 70 54 52 60 82 92 90 87 86 78 79 88 92 81 62 47 34 33 26 18 17 15 13 11 10 9
65 66 65 62 68 75 78 78 75 74 76 70 61 56 52 56 68 77 73 62 66 74 72 70 69 73 73 68 42 37 29 26 23 17 16 17 13 11 10 8 7 7 7
76 72 68 64 60 59 59 58 57 57 58 59 62 62 62 63 65 67 66 63 55 44 40 37 30 25 25 24 22 19 17 16 14 12 10 9 8 7 7 6 6 5 5
71 66 61 58 58 59 61 60 57 56 53 50 47 46 44 43 42 41 40 34 28 24 20 17 16 16 17 15 13 11 10 9 9 8 7 7 6 6 5 5 5 5 6
44 41 38 35 33 33 35 38 40 40 38 36 36 34 29 25 21 19 18 16 15 15 14 11 10 10 9 9 8 8 8 7 7 6 5 5 5 5 5 6 7 7 7
30 30 31 30 29 28 28 26 25 24 20 17 16 16 15 14 14 12 10 10 10 10 9 8 8 7 6 6 7 7 6 5 5 5 6 6 6 6 6 6 5 4 4
15 15 15 15 15 14 14 14 14 14 13 12 11 11 10 10 10 9 9 8 7 7 8 7 7 6 6 5 5 5 6 6 6 6 5 5 4 4 4 3 3 3 3

GFSGL_250_rhum_084.txt.gz
RH
100 100 96 44 36 42 32 29 76 100 100 94 93 100 100 100 100 100 100 100 100 100 100 100 100 100 100 96 92 98 89 74 79 63 73 90 93 81 85 97 100 100 100
100 100 90 45 44 51 46 32 52 92 100 100 96 85 100 100 100 100 100 100 100 100 100 100 100 100 97 70 65 65 75 78 96 100 98 94 94 79 100 100 100 100 100
100 100 98 62 51 62 56 49 32 58 98 100 100 100 67 91 100 97 98 100 94 94 100 100 78 73 70 75 90 100 94 92 87 86 89 98 97 73 39 33 33 36 39
100 100 100 80 59 68 58 58 54 42 52 78 100 100 100 92 88 72 70 79 68 67 57 66 74 98 100 100 94 76 54 47 42 36 43 35 36 38 41 43 45 44 48
100 100 100 94 84 66 66 63 58 51 48 51 65 90 100 100 100 100 100 100 100 100 100 100 95 65 35 27 26 30 31 31 32 34 36 37 40 44 46 50 53 54 55
100 100 100 89 88 85 63 61 63 58 51 46 45 42 47 56 69 74 68 62 65 64 54 43 38 40 44 41 37 37 37 38 38 36 38 41 53 58 59 66 66 69 69
100 100 100 93 100 100 99 82 60 53 58 53 50 48 44 39 39 40 42 45 48 53 53 51 51 49 43 44 44 48 51 51 52 56 55 57 64 70 55 62 80 71 83
100 100 100 100 99 100 100 100 90 75 54 47 52 55 66 69 56 48 55 66 66 77 82 69 64 68 68 63 49 47 47 51 63 63 55 57 72 85 85 83 81 88 100
100 100 100 100 100 100 100 100 100 100 82 63 45 49 44 53 65 64 64 70 71 64 57 54 50 48 44 44 41 43 47 65 79 79 87 87 73 55 57 61 62 64 50
100 100 99 100 100 100 100 100 100 89 76 72 70 57 63 54 48 46 46 46 45 45 47 53 50 49 54 55 59 64 70 74 68 65 65 60 49 52 57 63 68 74 91
100 100 98 100 100 100 100 100 100 100 100 90 80 59 47 50 52 57 54 52 63 67 62 63 66 69 66 72 70 69 71 68 71 72 66 62 67 66 62 77 90 100 100
95 100 100 96 99 100 100 100 100 100 100 100 96 80 71 66 81 80 76 62 54 47 46 58 68 72 70 72 77 75 62 60 61 68 75 82 88 95 100 100 100 100 96
100 100 100 99 100 100 100 100 100 100 100 100 100 100 100 100 100 99 97 84 72 70 66 71 68 51 45 53 53 52 53 69 79 81 81 75 79 82 91 100 100 95 70
100 93 99 100 99 100 100 100 100 100 100 100 100 100 100 100 100 100 100 100 85 72 68 68 62 48 48 54 58 65 69 74 71 68 56 51 71 80 81 78 72 75 96
97 97 100 100 100 100 99 95 100 100 100 100 100 100 100 100 100 100 100 94 98 94 96 100 98 83 68 66 71 81 87 86 71 85 92 96 97 78 77 99 99 92 54
100 100 100 100 100 100 92 92 99 100 100 100 100 100 100 100 100 100 100 100 100 100 100 97 100 100 100 100 100 98 80 79 88 97 98 100 98 100 95 92 59 70 84
100 94 90 78 82 80 85 82 88 97 100 97 92 94 100 100 100 100 100 100 100 100 100 100 100 100 100 91 69 77 95 95 88 83 85 96 94 84 56 78 78 81 83
100 100 100 99 99 100 100 100 100 97 90 86 85 85 84 80 78 76 77 83 87 83 74 68 63 63 67 82 86 83 73 62 66 71 70 75 73 74 84 87 64 59 38
100 100 100 100 100 93 91 93 91 84 83 87 83 81 78 70 68 77 72 69 67 69 76 82 82 77 65 59 59 58 63 76 79 69 69 72 83 92 84 54 35 34 26
80 72 97 100 100 100 100 100 100 100 99 92 85 78 76 76 75 70 67 64 62 62 62 61 59 59 67 73 89 82 74 63 61 71 93 75 49 46 33 28 23 15 14
69 66 74 79 88 90 91 88 82 83 91 90 82 76 75 74 72 71 67 65 63 65 70 76 76 70 66 65 66 64 74 78 53 55 48 32 22 21 14 13 12 9 8
61 60 65 68 65 64 64 65 65 65 66 66 64 63 63 62 61 61 64 68 72 67 62 61 61 61 68 69 61 53 49 35 26 21 17 14 11 10 9 8 7 6 6
63 58 56 56 56 56 55 55 55 55 57 57 56 56 57 59 59 61 62 62 63 63 62 60 52 48 44 37 26 21 17 14 12 11 9 8 8 8 7 6 7 6 6
71 70 70 68 65 66 65 61 57 55 53 54 52 53 53 52 48 44 37 32 30 30 27 23 20 17 14 14 12 11 9 8 8 8 8 7 7 6 5 5 5 5 6
56 56 58 58 57 57 56 55 49 40 37 36 35 32 27 23 20 18 17 16 14 14 13 12 11 9 8 8 8 7 7 6 6 6 5 5 5 6 6 6 5 4 4
20 20 19 18 18 17 16 16 16 16 15 15 15 15 14 13 12 11 10 9 8 8 8 8 7 7 7 7 6 5 5 5 5 6 6 5 4 4 3 3 3 3 3

GFSGL_250_rhum_087.txt.gz
RH
47 58 84 100 100 84 67 32 28 38 58 80 76 99 100 100 100 100 100 100 100 100 100 100 100 100 100 91 98 98 98 100 100 100 95 100 100 92 93 78 64 87 96
39 67 99 100 100 88 41 37 35 38 61 100 78 100 100 100 100 100 100 100 100 100 100 100 100 100 100 100 100 85 54 74 99 100 100 91 64 71 66 79 77 58 80
68 99 100 100 100 96 41 46 45 42 51 100 98 81 83 95 100 100 100 100 100 100 100 100 100 100 100 100 100 80 100 82 79 61 52 66 74 79 66 74 70 57 36
100 100 100 100 100 96 42 59 60 57 40 76 100 100 83 81 100 100 100 100 100 97 100 100 100 100 100 95 84 78 73 73 47 70 100 75 36 29 31 31 32 34 38
100 100 100 100 100 99 48 58 70 71 60 47 59 100 100 95 75 71 90 100 100 100 97 100 100 100 97 91 84 91 92 92 96 58 28 29 30 30 32 36 37 38 40
100 100 100 100 100 100 67 47 51 69 70 62 50 58 79 100 100 100 100 94 85 92 84 81 82 99 100 100 100 100 100 86 42 35 36 36 45 49 47 49 49 52 54
100 100 100 100 100 100 98 53 51 62 66 66 59 54 50 56 68 91 99 100 100 100 100 100 100 100 99 96 88 76 63 51 49 46 47 54 60 63 62 58 47 41 46
100 100 100 100 100 99 100 97 90 86 79 64 60 58 53 50 50 49 50 55 59 64 65 63 58 54 52 59 67 72 62 58 58 59 56 55 44 39 49 57 64 71 92
100 100 100 100 100 100 100 100 100 100 88 92 80 68 62 55 57 59 60 60 50 52 53 58 68 75 75 71 79 80 67 61 57 51 48 46 45 47 49 63 94 99 88
100 100 100 91 100 97 100 100 100 100 100 100 96 73 60 53 51 54 60 56 57 63 63 62 57 54 64 68 66 61 54 52 50 50 52 51 51 55 68 80 84 74 68
100 100 100 94 100 100 100 100 97 100 100 100 100 100 95 96 94 76 52 49 47 50 48 54 54 55 52 51 50 49 50 54 59 52 51 57 60 58 57 67 75 66 54
99 100 96 98 100 99 99 100 100 100 100 100 100 100 100 99 100 100 96 64 73 70 74 71 72 66 64 61 59 55 56 61 56 54 53 50 46 54 58 64 66 65 70
100 100 100 100 100 100 100 100 100 100 100 100 100 100 100 98 79 87 100 100 96 91 86 80 73 76 68 75 61 50 42 40 39 46 51 39 33 39 44 40 44 57 72
99 100 100 100 100 100 100 100 100 100 100 100 100 100 100 100 96 86 79 77 100 90 100 82 100 100 92 73 75 56 52 47 46 40 38 42 39 41 50 57 66 67 70
100 100 100 100 91 100 100 100 100 92 100 100 100 100 100 100 99 100 100 96 100 100 80 68 100 100 83 93 81 80 78 75 80 86 86 86 85 88 96 99 100 99 88
100 100 100 100 100 100 87 100 100 100 100 100 100 99 100 100 100 100 100 100 100 100 100 99 100 100 100 97 97 100 98 100 100 100 96 99 92 96 100 96 77 88 97
100 100 100 100 100 100 82 98 86 95 100 100 100 100 100 100 100 100 94 94 99 91 84 93 100 90 94 95 87 93 100 100 100 100 100 100 93 80 88 96 86 91 84
100 95 100 100 100 100 100 100 100 84 91 100 100 100 99 90 82 81 86 90 94 100 100 96 96 97 99 100 100 100 100 93 70 73 77 81 86 92 80 66 64 67 65
99 100 100 100 100 98 100 100 100 100 78 69 74 94 86 100 99 75 82 87 79 87 95 99 100 100 96 82 70 72 79 81 76 73 79 88 80 70 73 61 75 83 68
100 100 100 100 100 100 100 100 100 100 100 100 99 100 99 99 100 100 89 83 88 91 84 76 76 73 80 82 79 82 82 69 71 84 75 65 66 69 68 58 61 57 39
76 84 100 100 100 100 100 100 98 94 100 98 100 95 91 99 96 96 83 85 89 96 87 82 84 89 95 92 83 73 64 62 67 69 55 60 64 44 49 41 24 30 17
84 74 71 73 76 96 100 100 100 100 100 100 100 100 100 100 100 100 100 92 88 84 87 97 90 77 64 64 63 60 58 58 56 51 45 40 32 26 22 20 15 13 10
50 53 72 75 77 73 70 77 84 96 100 90 81 94 99 94 82 71 72 71 66 67 60 57 54 52 54 56 53 52 50 43 33 27 22 17 14 13 11 9 9 9 8
47 48 49 50 60 71 66 61 62 63 61 64 62 62 65 66 66 63 51 48 52 55 56 48 42 35 38 35 25 20 18 15 13 12 11 10 9 8 8 7 7 6 6
29 38 40 36 36 39 44 45 48 49 49 47 44 43 41 42 42 40 36 35 36 36 27 21 22 20 16 13 12 12 11 9 8 8 8 7 7 6 6 6 6 6 6
17 18 19 21 22 25 29 30 29 25 22 23 24 24 25 23 22 22 21 21 21 18 15 14 13 12 10 9 8 8 8 7 6 6 6 6 6 6 5 4 4 4 3

GFSGL_250_rhum_090.txt.gz
RH
77 68 95 90 48 42 67 100 100 100 77 33 30 61 82 86 100 100 100 100 97 100 100 100 100 100 100 100 100 100 100 100 93 96 100 100 100 89 90 69 98 100 100
100 92 100 100 83 52 84 100 100 88 44 30 33 62 82 100 100 100 100 100 100 100 100 100 100 100 100 100 100 100 86 76 98 100 100 95 83 66 93 100 100 59 63
100 98 100 100 100 71 95 99 99 77 33 33 59 82 100 100 100 100 100 100 100 100 100 100 100 100 100 100 100 100 100 100 100 100 100 99 79 89 100 89 58 45 71
100 100 100 100 100 86 95 92 100 65 39 40 59 100 98 100 100 100 100 100 100 100 97 84 100 100 100 100 100 100 100 100 100 100 100 100 97 82 75 83 80 46 30
100 100 97 98 100 99 90 99 100 60 45 40 45 100 100 91 100 100 100 100 100 100 97 96 97 99 100 100 98 82 87 100 100 100 94 78 82 91 100 95 56 34 39
78 100 100 96 100 100 91 80 100 69 53 50 49 51 98 100 100 100 100 100 98 89 97 100 100 100 100 100 100 100 100 97 95 94 98 95 100 100 92 59 43 44 44
83 70 83 78 100 100 87 71 94 88 62 66 65 63 61 66 98 100 100 100 100 100 100 100 100 100 100 100 100 100 100 100 100 100 100 100 99 89 68 57 54 59 58
69 80 90 65 83 100 96 59 94 100 68 68 72 73 68 59 62 77 96 100 100 100 100 100 100 100 100 100 100 100 100 100 100 100 96 85 86 94 87 71 64 60 53
54 73 67 68 67 100 100 72 73 100 100 86 74 67 64 61 59 60 59 62 71 83 96 100 100 100 100 100 100 94 86 81 79 78 76 78 82 84 77 66 58 54 54
69 67 59 58 99 96 100 94 76 100 100 100 100 100 92 81 71 64 63 67 64 66 79 91 96 97 98 99 100 100 100 95 91 87 81 77 75 68 62 61 61 59 65
63 62 57 72 97 100 100 100 81 78 99 100 100 100 100 100 100 94 98 89 92 96 92 80 81 76 78 84 81 82 80 73 75 75 67 60 58 56 58 62 60 57 56
72 79 84 98 100 100 100 100 100 90 94 100 100 100 100 100 100 100 97 100 100 100 100 92 85 74 79 81 97 100 94 90 80 76 72 69 68 65 60 57 53 46 41
86 99 95 100 100 100 100 99 100 100 100 100 100 100 100 100 100 100 100 100 92 95 99 78 74 76 68 62 78 76 62 62 62 58 56 55 53 48 43 37 36 34 32
96 94 100 100 100 100 100 100 100 100 100 96 97 100 100 100 100 100 100 100 98 84 72 75 83 70 57 50 50 53 51 53 50 48 50 42 37 30 33 35 38 40 45
100 100 100 100 100 100 100 100 100 100 100 100 100 100 100 100 100 100 100 98 100 100 100 95 65 61 73 88 85 57 56 58 42 47 51 60 60 59 66 64 68 71 78
100 100 100 100 100 100 100 100 100 98 100 100 100 100 94 100 100 100 100 100 100 100 100 100 100 81 65 77 80 70 66 68 68 66 72 69 79 93 96 90 92 100 96
97 100 100 100 100 100 100 100 100 100 100 100 100 100 93 92 100 100 94 75 100 100 100 100 100 100 100 99 93 100 100 100 100 100 100 99 94 98 100 99 95 100 100
94 100 100 99 92 90 100 100 100 100 100 100 100 100 93 100 99 100 100 99 100 100 100 100 100 100 100 100 100 100 89 88 98 97 87 78 91 97 100 100 99 93 99
93 97 100 100 98 100 100 97 100 100 100 100 100 100 100 100 100 100 100 100 98 100 100 100 100 100 94 83 89 97 71 59 83 81 58 88 87 83 74 79 84 79 76
84 96 96 100 96 86 100 98 97 98 100 100 100 100 100 100 94 100 100 100 100 100 97 97 93 86 79 74 64 69 83 75 60 76 85 74 90 89 77 84 94 88 75
65 77 84 89 95 82 85 92 90 89 91 89 84 87 92 90 72 82 87 68 76 94 82 82 85 85 77 84 92 96 88 88 96 95 86 85 72 99 92 67 66 64 55
47 50 65 66 74 75 69 68 70 70 79 83 80 79 79 82 92 93 98 81 82 77 76 83 94 90 80 78 76 89 93 87 86 81 74 79 96 87 74 63 50 45 38
26 32 34 41 53 63 77 75 75 69 66 66 67 70 67 64 68 77 87 91 82 77 80 81 84 82 75 73 83 97 89 74 76 89 71 75 71 68 52 35 26 22 21
18 16 17 18 20 28 41 56 57 52 56 53 53 59 63 65 63 61 60 61 64 65 64 65 78 87 80 78 68 63 66 72 75 70 69 67 44 23 20 18 11 9 9
16 15 15 13 13 13 13 15 18 25 38 42 42 47 49 50 51 52 57 57 58 58 57 56 56 60 63 62 63 62 59 68 72 39 23 21 17 10 9 8 6 6 6
10 11 12 12 13 13 12 12 12 12 13 14 17 22 28 32 35 39 41 45 50 51 56 55 54 54 55 53 40 31 26 20 16 12 11 9 7 6 6 6 5 5 4

GFSGL_250_rhum_093.txt.gz
RH
100 100 100 100 100 100 94 56 31 44 77 85 98 85 87 41 31 46 40 32 30 22 20 26 32 46 87 93 100 100 100 100 100 100 98 78 100 100 100 98 77 60 80
100 100 100 95 100 100 89 78 44 51 87 86 100 93 46 46 66 72 64 87 100 81 61 57 49 73 87 84 99 100 100 100 100 100 100 100 97 100 100 100 96 100 100
100 100 100 100 93 100 100 100 93 58 94 98 100 92 33 81 93 100 100 100 98 100 100 97 100 100 100 100 100 100 100 100 100 98 90 100 100 100 95 100 100 94 79
100 100 89 97 73 93 100 100 97 84 96 100 94 58 34 87 100 100 95 100 100 100 95 100 100 100 100 100 93 100 100 100 100 100 100 99 95 100 100 100 99 93 100
100 78 77 100 92 71 92 54 91 98 93 100 98 47 40 69 100 100 100 100 100 100 100 100 100 100 100 100 100 100 100 100 100 100 100 100 100 100 100 100 100 100 100
68 100 100 100 100 100 100 87 99 86 91 91 100 58 38 65 100 100 100 100 100 100 82 86 96 100 100 98 93 100 100 88 76 89 91 98 97 98 97 98 97 100 100
97 99 92 100 100 99 100 88 93 83 100 100 100 69 48 76 92 100 100 100 100 100 100 100 100 100 100 85 82 88 88 97 100 99 100 100 100 100 100 100 100 100 100
100 100 100 100 100 100 100 91 89 68 89 90 100 87 64 59 77 100 100 100 100 100 100 100 100 97 98 98 94 92 92 100 100 100 100 100 100 100 100 100 100 100 99
100 96 92 100 100 100 100 100 99 75 66 81 70 92 73 72 69 65 85 100 100 100 100 100 100 100 100 100 100 100 100 100 100 100 100 100 100 100 100 100 100 96 95
100 100 100 89 65 84 100 100 100 93 59 71 75 66 98 77 82 80 74 66 68 91 100 100 100 100 100 100 100 100 100 100 100 100 100 100 100 100 100 100 95 96 88
100 100 100 100 100 88 100 99 100 77 96 81 72 78 84 100 94 92 89 83 74 71 68 70 75 80 91 96 97 98 100 97 96 99 95 83 87 91 96 92 85 76 68
84 84 98 100 100 95 86 75 90 100 99 72 90 74 80 93 100 100 99 100 97 96 99 100 100 100 100 100 100 100 100 100 98 98 100 92 90 86 78 86 88 86 77
78 85 88 75 60 56 67 71 65 83 100 100 100 93 89 100 100 100 100 100 100 100 100 100 100 100 100 100 92 92 100 94 87 86 88 93 82 74 80 92 74 58 47
100 96 100 71 54 56 61 57 51 48 86 100 95 94 91 98 90 90 100 100 100 100 100 92 100 100 99 98 100 100 92 88 80 79 68 62 60 61 58 55 60 55 49
92 93 90 73 62 67 62 55 60 79 96 100 100 100 96 93 96 98 100 100 100 100 100 100 90 100 100 97 99 83 68 62 47 43 42 47 42 42 40 46 45 46 50
97 82 88 83 72 68 67 65 67 83 83 100 100 100 100 100 100 97 77 92 100 100 100 100 100 100 100 100 98 100 90 90 87 96 89 89 77 73 63 55 54 84 97
100 99 98 99 93 85 85 87 86 91 100 100 100 100 100 98 100 90 78 82 99 95 100 91 100 100 100 100 100 99 100 100 100 100 100 99 92 100 100 100 100 100 100
100 100 100 100 100 95 93 89 81 90 87 98 100 100 100 100 100 100 100 92 94 94 90 99 100 100 100 100 100 90 100 100 100 100 100 100 100 100 100 98 96 93 82
88 96 97 93 90 92 96 98 90 87 88 91 96 100 100 100 98 100 100 100 100 100 100 97 94 98 81 84 100 100 99 88 100 100 100 100 100 100 98 98 91 74 81
60 65 67 69 78 83 88 93 96 92 91 94 90 99 100 100 100 99 100 100 100 100 100 100 100 91 88 99 92 98 100 100 100 100 100 98 98 97 90 89 94 90 95
34 43 50 56 62 66 69 74 79 80 80 80 83 88 82 82 87 100 99 96 94 97 100 100 100 100 100 97 100 100 100 100 100 100 97 90 95 98 95 98 94 80 66
24 26 33 37 39 47 54 60 64 67 66 68 68 72 76 73 74 84 89 93 90 89 91 93 92 99 94 93 99 99 98 98 98 99 99 96 92 78 67 58 59 60 64
21 21 19 18 21 26 30 32 39 45 48 55 58 62 69 76 72 77 77 78 88 87 80 82 83 84 85 90 86 74 71 72 71 67 65 62 59 58 56 55 57 57 60
12 13 15 16 15 14 14 15 18 21 25 30 38 43 40 46 54 64 66 68 68 66 66 69 69 67 67 66 64 64 64 58 51 48 51 54 54 56 46 55 55 42 45
10 10 10 10 11 12 12 13 12 12 13 14 18 22 24 33 36 36 38 46 46 50 55 55 51 49 49 50 52 54 54 52 50 48 42 40 46 48 38 39 37 28 24
7 7 7 7 7 7 8 8 8 9 10 11 12 12 12 13 14 15 17 21 25 24 25 29 31 31 33 36 37 34 32 33 36 32 25 27 29 25 19 17 14 11 9

GFSGL_250_rhum_096.txt.gz
RH
89 97 91 100 100 100 100 100 100 97 58 24 30 38 36 55 92 100 100 100 92 79 53 49 66 64 79 100 100 100 100 100 100 100 100 100 100 96 92 93 96 100 82
100 100 100 100 100 100 100 100 100 99 46 49 36 42 70 100 100 100 99 52 40 41 35 22 24 44 56 71 87 100 100 100 100 100 100 100 100 100 100 100 100 76 100
100 100 100 100 100 95 100 100 100 100 55 69 56 89 99 100 100 87 40 69 62 58 54 36 25 20 29 50 63 99 100 100 100 100 100 100 100 100 100 99 100 100 100
100 100 100 100 100 100 100 76 100 100 65 46 97 100 96 82 87 49 58 73 80 96 95 75 60 39 35 40 54 89 95 100 100 100 100 100 100 100 100 100 100 100 100
100 83 97 100 91 70 51 47 43 92 82 36 50 100 100 87 85 56 71 96 100 100 100 100 100 100 88 100 100 100 100 100 84 73 86 96 100 100 100 100 100 91 80
94 75 85 71 55 83 100 100 99 72 100 72 50 61 100 90 80 53 89 89 100 100 100 100 99 78 91 100 100 100 100 94 100 100 100 100 100 100 100 100 97 69 76
98 100 99 68 90 86 100 100 100 76 93 98 93 67 79 100 95 56 85 100 100 96 98 100 100 100 100 100 100 100 100 100 100 88 92 86 97 100 100 96 99 99 100
100 100 100 93 100 100 100 100 100 100 65 59 58 57 69 100 100 92 58 100 100 100 100 83 99 100 100 100 100 82 83 90 100 100 96 92 90 87 85 98 100 100 100
100 100 88 96 100 100 100 100 100 100 100 100 96 74 60 69 100 100 73 85 100 100 100 100 100 100 100 93 93 100 95 75 71 80 88 98 98 100 100 100 100 100 100
100 100 82 60 100 100 100 100 100 100 100 80 69 62 60 53 63 100 100 75 76 100 100 100 100 100 100 100 100 100 100 100 100 100 100 100 100 100 100 100 100 100 100
100 100 100 100 100 100 100 100 100 98 99 100 100 96 94 61 45 63 95 100 81 76 94 100 100 100 100 100 100 100 100 100 100 100 100 100 100 100 100 100 100 100 100
100 100 100 100 100 100 100 100 100 100 100 100 100 97 97 98 72 41 47 78 99 86 78 81 83 92 100 100 100 100 100 100 100 100 100 100 100 100 100 100 100 100 100
100 100 100 100 100 100 100 100 100 100 100 100 99 82 68 85 83 72 46 40 51 75 82 83 89 92 92 91 90 93 99 100 100 100 100 100 100 100 100 95 91 100 100
88 97 100 100 100 100 100 100 100 100 100 100 99 83 95 85 74 99 75 52 41 43 51 70 84 93 100 100 100 100 100 100 100 100 100 100 100 100 97 94 100 97 92
100 100 100 100 100 100 100 100 100 97 88 85 89 88 82 71 65 68 81 82 67 51 47 49 65 82 84 93 100 100 100 100 100 100 100 100 92 95 98 97 98 95 81
98 100 100 100 100 100 100 95 93 94 82 86 71 60 52 68 68 58 66 74 87 81 76 96 98 91 94 96 88 98 100 99 94 99 100 100 88 98 88 90 90 70 52
82 86 81 79 74 78 73 70 62 71 84 84 79 64 58 62 68 55 68 100 100 100 81 95 98 94 93 98 96 85 75 85 78 75 82 86 80 78 62 60 60 53 52
76 75 79 76 70 62 59 64 69 72 95 96 88 71 70 58 64 67 74 93 100 100 100 97 93 98 100 87 97 100 96 89 85 95 97 88 86 76 80 91 91 88 98
70 77 77 74 76 87 87 89 87 87 84 76 76 74 85 74 74 72 66 78 98 100 96 100 100 100 100 100 97 94 96 99 100 99 89 89 91 96 95 92 92 98 97
37 51 59 63 65 67 71 78 79 80 78 72 76 76 72 84 82 72 69 69 74 90 95 96 100 100 100 95 100 87 85 82 80 88 85 78 86 96 98 83 79 86 94
20 20 23 31 44 50 56 60 64 72 77 75 72 76 77 79 82 74 70 64 61 71 74 94 100 95 100 100 100 100 100 93 83 78 92 86 82 89 93 84 80 81 88
20 18 18 17 18 22 27 35 42 45 49 56 61 63 62 60 66 70 71 72 73 64 66 73 76 88 97 99 98 95 99 98 98 96 96 100 100 100 100 96 90 81 77
16 16 17 17 17 17 16 15 16 20 25 28 30 30 32 35 39 43 48 52 58 62 63 59 63 65 68 70 83 90 87 84 83 84 83 81 80 78 78 79 78 81 94
10 10 10 10 10 11 12 12 13 13 13 13 13 13 14 15 17 18 23 29 33 36 38 46 49 51 54 56 56 57 59 61 64 66 70 75 77 82 88 87 83 67 62
8 7 7 8 8 8 8 8 9 9 10 10 10 11 12 12 13 13 13 16 18 19 20 21 24 30 36 38 39 43 47 48 45 43 43 46 49 52 52 49 46 45 40
7 7 7 6 6 5 5 5 5 5 6 6 6 7 8 8 9 10 12 12 13 13 13 14 14 15 17 19 20 21 24 25 26 28 29 31 31 29 27 23 21 21 18

GFSGL_250_rhum_099.txt.gz
RH
96 96 100 100 96 100 100 100 100 98 100 98 100 78 62 35 30 31 72 43 42 84 91 90 97 97 98 94 100 100 100 100 100 100 100 100 100 92 76 100 100 100 100
100 100 100 97 100 98 100 86 100 100 100 100 96 72 40 21 29 41 43 55 63 67 76 77 83 86 76 83 99 100 100 100 100 100 100 100 100 100 100 98 100 100 100
100 100 100 100 100 100 100 100 100 100 84 100 68 44 31 32 44 57 74 92 90 67 78 80 57 46 51 58 62 81 100 100 100 100 100 100 100 100 100 100 100 100 99
100 100 100 100 100 100 100 100 95 74 74 89 75 67 49 64 82 94 100 100 89 71 43 42 59 59 42 28 39 58 69 95 100 100 100 100 100 100 100 100 100 100 100
100 100 100 100 100 100 100 100 72 43 72 100 100 49 61 86 100 100 100 100 72 38 67 62 76 80 65 42 28 43 47 74 78 95 100 100 100 100 100 100 100 95 100
100 100 100 100 100 100 98 80 78 66 58 76 97 54 42 51 99 100 98 100 65 40 64 81 100 100 100 100 67 98 100 44 48 79 100 100 100 100 100 100 100 100 100
100 100 100 100 100 100 71 69 100 100 95 75 92 67 57 48 46 62 94 100 91 43 51 96 95 100 100 100 100 96 100 100 100 86 99 100 86 88 78 68 65 55 57
100 100 93 92 89 60 44 43 100 100 100 100 100 97 79 70 37 44 61 94 100 90 76 58 94 86 100 99 96 100 100 100 100 100 73 67 78 71 85 76 97 100 100
100 100 74 87 80 70 66 72 100 100 100 85 100 98 96 84 53 31 45 77 100 100 100 95 70 100 79 100 100 85 77 72 72 59 51 55 60 76 95 99 100 100 100
100 100 100 92 100 95 75 76 100 100 100 100 100 100 100 96 75 34 68 66 90 100 98 99 100 85 72 99 100 100 100 100 100 100 100 100 100 100 100 100 100 100 99
100 99 100 100 100 100 82 95 100 100 100 100 100 100 100 100 85 58 66 42 48 58 93 84 86 100 100 92 67 84 94 97 98 82 91 88 88 81 76 69 83 90 75
100 100 100 100 100 100 100 96 100 100 100 89 92 100 100 100 100 78 74 52 41 35 39 44 66 73 88 100 100 100 90 92 89 88 93 92 94 93 90 90 84 94 100
100 100 100 100 100 100 100 94 100 100 100 100 100 100 99 83 61 60 62 58 82 71 74 73 62 47 49 66 77 100 100 100 100 100 100 100 100 100 100 100 100 100 100
100 100 100 100 100 100 100 100 100 100 100 100 100 100 100 89 90 100 100 95 97 78 80 87 68 51 50 43 46 60 66 77 96 98 100 100 100 100 100 100 100 100 100
100 100 100 100 100 100 100 100 100 100 100 100 100 100 100 100 100 100 100 100 100 100 100 69 63 53 47 51 52 48 59 66 62 63 65 72 82 89 93 98 100 100 100
100 96 100 100 100 100 100 100 100 100 100 100 100 100 100 100 100 100 100 100 100 100 99 78 68 67 67 60 50 62 53 51 67 78 94 96 94 93 83 82 89 90 96
100 100 98 100 100 100 98 100 100 100 100 100 100 100 100 100 100 100 100 100 100 100 96 83 87 84 61 61 63 54 59 70 67 78 91 100 100 100 100 100 94 96 98
82 92 100 96 100 100 100 100 100 100 100 100 100 99 93 96 92 98 90 99 100 100 100 93 86 63 55 60 63 59 56 60 60 87 100 100 100 100 100 100 100 100 100
78 78 80 82 83 78 89 94 98 84 89 99 100 98 99 100 100 100 100 100 100 99 88 77 78 64 53 54 65 64 64 72 77 84 84 92 100 100 99 100 100 92 93
44 57 58 60 64 70 73 78 87 90 87 81 80 100 95 95 100 93 89 92 86 76 72 70 64 69 63 64 57 64 70 71 85 96 93 92 88 87 86 93 100 94 98
20 18 23 36 54 65 64 60 62 59 49 54 67 72 85 91 93 88 81 80 74 66 64 59 59 71 73 67 60 60 58 64 74 76 79 90 91 94 93 88 97 100 93
15 15 17 17 16 15 14 16 21 26 34 44 44 45 46 44 46 47 52 53 54 51 53 52 57 64 69 74 75 77 78 77 69 70 69 67 75 79 77 85 92 90 85
10 10 11 11 11 11 12 11 11 12 14 15 17 20 22 24 27 30 32 32 32 34 36 38 42 47 50 53 60 67 70 76 84 80 68 61 61 64 66 69 71 75 82
11 10 10 10 9 8 8 8 8 8 7 8 9 10 11 12 12 13 13 14 17 20 22 24 27 30 32 33 37 43 48 49 48 51 56 57 57 56 54 52 54 58 62
8 8 8 7 7 7 7 7 7 7 7 7 6 6 7 7 8 9 10 10 11 12 13 13 13 14 15 17 18 19 20 22 25 26 28 31 34 36 39 45 48 41 39
6 5 5 5 4 4 4 4 4 5 5 5 4 4 5 5 5 6 6 6 6 7 8 8 9 10 10 11 12 12 13 14 14 15 16 16 17 17 19 21 25 27 26

GFSGL_250_rhum_102.txt.gz
RH
41 76 98 88 92 98 62 66 70 56 88 100 100 100 100 100 100 100 100 100 80 63 47 38 46 66 43 56 100 100 100 100 99 100 100 100 97 96 100 94 100 100 100
91 95 100 100 100 100 100 100 100 100 100 100 100 100 100 100 100 100 98 66 50 38 29 34 70 45 90 92 100 100 100 100 100 94 100 100 100 100 100 100 93 99 98
100 100 100 100 100 100 100 100 100 100 100 100 100 100 92 98 100 76 36 28 22 24 35 52 63 87 100 100 100 100 100 100 100 100 100 100 100 100 100 100 100 77 83
100 100 100 100 100 100 100 100 100 100 100 100 100 100 85 100 71 32 37 34 43 49 48 60 86 97 98 94 100 90 83 100 100 100 100 100 100 100 100 100 100 100 100
100 100 100 100 100 100 100 100 100 100 100 100 100 100 94 64 33 39 47 57 90 90 76 78 81 89 82 81 76 78 70 64 58 78 100 100 100 100 100 100 100 100 100
100 100 100 100 100 100 100 100 100 100 100 100 100 100 65 29 35 71 83 86 100 75 79 86 78 45 64 71 70 80 47 40 46 52 61 88 100 100 100 100 100 100 100
100 100 100 100 100 100 100 100 100 100 100 100 100 91 35 35 37 44 84 90 83 99 97 98 60 41 62 91 99 96 69 45 58 62 76 81 79 100 99 98 100 100 100
100 100 100 100 100 100 100 100 100 100 99 100 82 54 38 42 61 49 52 61 72 79 100 100 93 64 67 93 92 95 88 100 100 100 97 100 100 100 100 100 100 100 100
100 100 100 100 100 100 100 100 100 100 92 79 86 61 99 100 100 89 62 60 73 50 60 100 89 78 83 76 70 100 100 100 100 100 100 99 84 93 99 90 82 100 75
100 100 100 100 100 100 100 100 100 96 100 100 100 96 100 100 100 100 100 91 60 75 46 43 94 83 85 100 91 79 100 100 100 94 89 100 100 100 98 67 62 58 70
100 100 100 100 100 100 95 99 100 100 71 100 100 100 100 100 100 100 100 100 100 96 48 44 68 88 93 84 89 96 74 94 100 100 86 74 84 88 88 83 85 92 100
100 100 100 100 100 100 100 100 100 91 60 92 100 100 100 100 100 100 100 100 100 100 65 52 50 82 92 100 100 100 100 92 85 80 100 100 100 100 100 100 100 100 100
100 100 100 100 100 100 100 100 100 93 92 100 100 100 100 89 100 96 100 100 100 92 70 73 43 48 48 50 32 45 76 100 100 100 94 88 90 89 92 92 94 83 61
100 100 100 100 100 100 100 100 100 100 100 100 100 100 100 100 76 65 100 100 99 84 82 74 76 57 42 27 31 30 32 33 53 58 92 98 100 100 95 92 94 99 100
100 100 100 100 100 100 90 96 100 100 100 100 100 100 100 100 100 81 100 100 100 90 77 73 75 62 44 38 34 44 47 80 48 76 68 50 40 51 81 98 100 100 100
100 100 100 100 100 100 100 98 85 100 100 100 100 100 100 100 100 100 100 71 65 62 71 74 64 53 58 69 71 89 96 89 83 85 75 64 45 47 46 42 43 63 98
100 100 100 100 100 100 100 100 99 90 100 100 100 100 100 100 100 100 100 100 100 100 100 100 100 100 100 100 100 100 100 100 91 83 97 87 80 71 77 60 46 43 57
86 92 100 100 100 100 100 100 100 100 98 84 100 100 100 100 100 100 100 100 100 100 100 100 100 100 100 100 100 100 100 100 99 100 98 95 86 81 73 68 54 55 52
87 86 81 88 97 100 85 100 100 100 100 100 94 90 100 100 100 100 100 100 100 100 100 100 100 100 100 100 100 100 100 93 92 100 100 99 97 92 87 77 66 53 53
48 60 71 71 73 70 74 78 76 93 100 100 100 100 99 90 97 100 100 100 100 100 100 100 100 100 100 100 100 89 86 86 82 89 99 99 94 84 80 77 73 59 52
20 23 34 46 55 52 56 60 61 58 56 64 80 76 78 94 100 98 98 100 97 100 100 100 100 100 97 93 94 96 97 100 100 100 100 100 96 88 88 86 83 73 63
14 15 17 19 21 22 27 31 30 38 41 46 49 48 56 58 54 52 53 54 58 68 68 75 72 60 61 73 70 74 84 90 86 91 98 99 100 96 90 82 74 62 56
11 12 11 11 10 10 11 12 14 17 20 22 23 25 28 31 36 45 59 57 53 56 57 55 55 64 73 74 72 72 72 75 73 78 86 77 78 82 73 63 61 59 60
14 12 11 10 9 7 7 7 7 8 8 10 11 11 12 13 15 19 22 25 27 30 33 36 36 36 37 40 48 51 57 61 63 66 60 54 53 54 55 53 46 46 46
11 10 8 7 6 6 5 6 6 6 6 6 6 6 6 7 7 8 8 9 9 10 11 13 15 16 17 20 21 23 26 29 32 34 38 41 38 32 29 28 28 31 33
7 5 5 4 4 4 4 3 3 3 3 4 4 4 4 4 4 4 4 4 4 4 6 7 7 7 7 8 8 8 9 10 11 12 13 13 14 13 13 12 12 13 13

GFSGL_250_rhum_105.txt.gz
RH
26 24 19 27 35 90 81 75 64 57 30 56 57 81 100 100 100 100 99 93 83 87 100 100 100 100 84 72 52 42 34 35 90 100 100 100 100 97 74 85 100 100 99
28 21 38 53 55 89 98 81 73 43 45 64 71 100 100 100 93 98 100 99 99 100 100 100 100 100 92 73 54 44 31 35 49 100 100 100 100 100 100 88 65 50 42
26 39 78 87 87 94 100 99 97 69 66 79 88 100 100 99 75 100 100 100 100 100 99 89 91 68 60 54 46 38 29 52 68 100 100 100 100 100 100 100 91 100 100
37 77 100 100 100 94 100 100 100 100 94 89 100 100 100 100 95 100 100 100 100 100 85 81 44 31 27 26 28 34 52 50 96 100 100 100 100 100 100 100 100 100 100
82 100 100 100 100 100 100 100 100 100 100 100 100 100 100 100 100 98 98 100 82 58 34 28 25 26 31 46 59 70 98 90 100 100 100 100 100 100 100 100 100 100 100
100 100 100 100 100 100 100 100 100 100 100 100 100 100 100 100 99 100 86 68 44 35 27 29 58 69 72 83 98 95 95 100 100 86 100 100 100 100 100 100 100 100 100
100 100 100 100 100 100 100 100 100 100 100 100 100 100 100 100 100 100 93 60 43 28 31 61 77 91 100 94 85 78 80 78 76 78 70 58 57 67 91 99 100 100 100
100 100 100 100 100 100 100 100 100 100 100 100 100 100 100 100 100 100 81 50 33 37 48 68 86 85 85 76 50 51 66 74 74 80 60 47 51 54 57 67 76 80 99
100 100 100 100 100 100 100 100 100 100 100 100 100 100 100 100 100 100 75 57 40 49 46 69 80 77 73 94 85 43 75 100 98 90 76 91 100 98 100 95 91 100 100
100 100 100 100 100 100 100 100 100 100 100 100 100 100 100 100 100 100 75 48 78 99 56 51 54 56 59 81 86 85 61 98 100 100 100 100 100 100 100 100 100 100 100
100 100 100 100 100 100 100 100 97 97 100 100 100 100 100 100 100 100 89 90 98 100 93 68 56 74 70 37 42 84 80 80 95 100 100 98 100 95 100 100 100 100 100
100 100 100 100 100 100 100 100 98 100 100 100 100 95 100 100 100 100 100 100 100 100 100 100 100 100 100 84 58 40 79 92 93 100 100 100 100 94 80 71 95 100 100
100 100 100 100 100 100 100 100 100 100 100 100 100 100 100 100 100 100 100 100 100 100 100 100 100 100 100 74 47 39 47 89 84 85 92 100 100 100 100 99 90 86 78
100 100 100 100 100 100 96 100 100 100 100 100 100 100 100 100 100 100 96 100 100 100 100 100 83 75 97 84 43 28 30 58 82 80 86 100 100 100 100 100 100 97 97
98 100 100 100 100 100 100 100 100 100 100 100 100 100 100 100 100 100 100 99 97 100 94 100 100 92 90 77 68 44 39 30 46 67 68 41 34 62 80 46 55 100 100
98 94 100 100 100 100 100 100 100 100 100 100 100 100 100 100 100 100 100 100 100 97 85 88 70 83 82 60 75 97 67 72 48 44 45 36 32 37 34 38 51 49 60
82 93 95 100 100 100 100 100 94 100 100 100 100 100 100 100 100 100 100 100 100 100 100 100 100 87 74 67 92 100 96 73 81 70 69 59 52 38 37 47 47 51 94
59 74 78 86 89 95 100 100 100 86 88 100 100 100 100 100 100 100 100 100 100 100 100 100 100 100 100 100 100 93 76 93 85 79 76 67 61 57 76 68 64 96 96
70 58 64 68 72 77 79 88 95 100 82 70 74 91 99 100 100 100 99 100 100 100 100 100 100 100 100 100 100 99 89 84 75 75 97 79 86 99 95 96 100 100 100
37 48 66 60 56 66 67 69 72 76 88 87 73 61 58 68 88 96 100 100 91 80 91 100 100 100 100 100 100 100 100 100 100 100 100 98 96 82 90 94 100 100 100
22 22 27 35 47 57 54 54 56 56 58 63 80 71 66 55 43 45 62 67 76 93 94 82 78 86 86 91 98 100 100 100 100 100 100 100 100 100 100 100 100 100 100
15 15 17 18 18 18 18 26 34 29 31 36 43 52 56 64 61 53 45 42 41 39 49 62 76 81 81 85 91 100 100 100 100 100 100 100 100 100 100 100 100 97 92
15 13 11 10 10 10 11 12 12 12 13 18 20 22 23 28 38 52 63 66 70 70 62 52 47 52 59 68 74 80 80 75 75 79 88 92 91 90 90 83 94 96 98
23 16 12 10 9 8 7 6 6 6 6 7 7 7 8 10 12 14 16 20 29 42 55 69 81 83 78 74 74 72 70 72 78 83 85 87 91 95 100 100 100 100 93
21 16 12 9 8 7 6 6 6 6 6 5 5 5 5 5 5 4 4 5 6 8 11 13 16 23 32 44 57 65 72 75 75 75 74 73 72 72 74 74 79 86 90
12 8 5 4 4 3 3 3 3 3 3 3 3 3 4 4 4 4 4 4 4 4 5 5 5 6 7 9 10 11 13 15 17 20 25 27 28 27 28 31 33 36 39

GFSGL_250_rhum_108.txt.gz
RH
41 40 36 42 40 28 19 23 95 71 81 77 64 54 29 61 52 49 80 73 80 96 86 100 95 97 86 85 78 61 60 56 70 100 100 100 100 97 100 100 100 100 100
51 45 44 49 39 24 24 29 64 71 62 94 88 77 47 78 75 81 100 79 79 100 100 81 90 100 89 54 86 100 65 63 48 81 98 100 100 100 100 98 94 100 100
55 42 59 49 32 25 28 48 82 60 98 100 100 91 98 100 99 93 97 100 100 93 99 100 100 100 92 84 87 53 58 46 39 39 36 40 58 89 98 100 100 82 100
45 52 64 40 28 41 37 100 92 70 99 100 100 100 100 100 100 100 99 100 99 90 91 100 100 100 100 96 59 52 49 33 26 24 27 40 33 31 32 95 100 100 100
51 62 48 34 44 56 97 100 99 96 97 100 100 100 100 100 100 100 100 96 80 96 98 98 100 98 100 83 90 76 53 40 26 24 30 27 28 32 53 98 100 100 100
49 53 38 39 84 93 100 100 100 100 100 100 100 100 100 100 100 100 100 100 96 100 86 90 81 85 76 52 32 27 25 28 34 30 32 44 71 87 100 100 100 100 100
51 46 49 80 94 98 100 100 100 100 99 100 100 100 100 100 100 100 100 100 87 100 100 99 80 50 40 31 32 27 42 61 73 80 94 98 100 100 100 100 100 100 100
41 44 76 99 100 100 100 100 100 100 100 100 100 100 100 100 100 100 100 100 99 90 100 93 78 55 44 34 46 67 78 84 89 92 91 100 99 100 100 100 100 100 100
36 48 90 100 100 100 100 100 100 100 100 100 100 100 100 100 100 100 100 100 100 100 99 65 68 57 34 42 56 52 67 66 64 59 69 80 70 74 82 75 69 77 96
31 50 100 100 100 100 100 100 100 100 100 100 100 100 100 100 100 100 100 100 100 100 100 88 48 43 45 52 49 53 60 65 68 65 50 58 71 80 74 71 58 55 58
30 66 100 100 100 100 100 100 100 100 100 82 99 94 100 100 100 100 100 100 100 100 92 71 71 61 70 72 73 70 58 61 72 81 95 57 51 100 80 71 93 100 100
45 88 100 100 100 100 100 100 100 100 100 100 100 98 100 100 100 100 100 100 100 100 100 100 95 98 100 93 78 58 60 65 59 43 56 97 95 66 100 89 95 97 82
74 98 100 100 100 100 100 100 100 100 100 100 91 98 100 100 100 97 100 100 100 100 100 100 100 100 100 100 90 100 100 100 92 55 40 45 93 100 91 96 100 79 88
83 100 100 100 100 100 100 100 100 100 100 100 89 100 100 100 100 100 100 100 100 100 100 100 100 100 100 98 100 96 71 51 39 56 40 35 37 71 99 100 100 85 86
84 100 100 100 100 100 100 100 100 100 100 100 88 90 100 100 100 100 100 100 100 100 100 100 100 100 97 81 85 84 77 72 85 71 41 37 32 32 53 80 92 100 100
87 85 96 100 100 100 100 100 100 100 100 100 98 100 100 100 100 100 100 100 100 99 100 100 98 100 100 100 100 98 89 66 72 81 90 80 51 51 36 35 38 62 97
65 78 89 100 100 100 100 100 100 100 100 98 99 89 95 100 100 100 100 100 100 100 100 100 100 95 100 87 92 100 100 100 68 63 76 69 54 61 57 44 49 50 69
58 67 71 87 86 85 93 92 98 100 100 100 86 95 91 81 92 100 100 100 100 100 100 100 100 100 100 98 75 67 81 97 96 96 90 78 76 62 47 54 48 57 37
64 63 66 66 70 75 75 78 79 86 88 90 80 70 78 82 79 84 100 100 100 100 100 100 100 100 100 100 100 100 96 77 66 62 60 65 68 50 45 44 50 51 66
36 49 53 59 63 58 61 70 75 74 75 78 69 65 58 58 71 79 74 75 93 100 100 100 100 100 100 100 100 100 100 100 93 85 90 93 89 86 84 82 74 74 76
23 25 26 30 39 42 47 49 49 55 68 71 73 63 64 58 47 53 60 64 64 57 59 74 85 99 98 95 87 79 87 97 100 100 100 94 88 90 94 99 100 100 100
18 17 18 17 18 21 22 22 21 23 26 29 32 41 43 36 43 44 41 43 47 51 60 66 63 63 61 65 80 88 92 94 93 91 92 98 98 96 98 99 100 97 95
26 25 22 19 16 13 12 10 10 9 8 8 8 9 12 15 17 22 32 36 36 37 44 52 58 67 81 85 78 70 65 63 68 71 74 78 83 81 81 88 90 94 92
44 39 35 30 24 18 13 10 8 7 7 7 6 6 5 5 6 7 9 10 14 20 28 32 32 35 40 45 48 54 73 91 93 93 89 85 81 84 92 98 99 99 92
39 33 26 20 14 10 7 6 5 5 5 5 4 4 4 4 4 4 4 4 4 5 5 6 9 13 21 30 33 37 44 49 50 53 57 58 59 62 61 65 71 77 85
42 35 26 18 10 6 4 3 3 3 3 3 3 3 2 2 2 2 2 3 3 3 4 4 4 4 5 6 8 11 15 21 28 35 42 47 56 61 71 79 86 90 93

GFSGL_250_rhum_111.txt.gz
RH
84 89 93 78 62 56 49 38 29 35 31 23 66 30 65 100 100 93 98 93 84 77 88 94 97 90 86 91 50 73 70 69 50 55 74 100 100 100 100 100 100 100 100
88 89 86 90 73 51 35 33 31 34 26 28 99 88 100 100 100 100 98 64 32 94 75 100 100 87 94 64 71 82 62 74 85 72 75 90 100 100 100 100 100 93 100
75 99 89 75 63 47 40 40 36 29 20 76 98 100 90 100 97 86 80 81 67 92 100 100 92 98 78 100 89 64 74 82 82 95 81 71 92 100 100 99 100 100 100
100 100 100 80 58 61 55 39 33 23 22 97 92 95 94 74 100 89 100 98 100 100 100 100 100 87 77 83 87 78 72 66 76 84 66 58 63 89 100 100 91 98 100
100 100 98 85 60 67 60 41 30 25 61 100 99 87 93 100 100 100 100 100 100 100 100 100 78 100 100 98 74 69 84 67 57 43 39 49 48 55 68 95 100 88 94
81 78 62 60 58 89 59 43 29 45 99 100 99 69 100 100 100 100 100 100 100 100 100 100 100 100 100 100 97 56 60 47 50 43 31 31 28 28 27 64 62 26 27
78 61 52 62 67 91 60 38 46 96 100 90 100 77 98 100 100 100 100 100 100 100 100 100 100 100 99 68 66 90 78 58 43 43 36 32 30 31 27 22 22 28 29
69 62 59 63 75 80 46 36 90 100 100 100 100 92 85 92 100 99 100 100 100 100 100 99 100 100 96 98 81 96 82 53 39 30 24 25 28 38 43 38 37 40 56
76 69 57 54 55 54 44 65 100 100 100 100 100 100 100 100 100 98 88 100 100 100 100 100 93 100 96 75 54 83 63 51 40 31 30 32 40 42 63 82 81 84 92
52 43 35 35 42 40 44 88 100 100 100 100 100 100 100 100 100 100 99 100 100 100 100 100 100 94 98 78 76 72 66 57 42 35 48 55 58 50 54 68 77 89 98
30 28 26 27 28 34 57 96 100 100 100 100 100 100 100 100 100 100 100 100 100 100 100 100 100 100 100 100 96 92 71 56 38 42 66 64 62 58 58 50 50 61 73
28 25 24 25 28 43 83 100 100 100 100 100 100 100 100 100 100 100 100 100 100 100 100 100 100 100 100 100 100 100 81 49 61 77 67 67 67 67 63 72 68 66 70
30 32 32 32 36 92 100 100 100 100 100 100 100 100 100 100 100 100 100 100 100 100 100 100 100 100 100 100 100 100 89 70 83 80 72 60 66 89 69 60 71 73 79
32 38 35 34 53 98 100 100 100 100 100 100 100 98 100 100 100 100 100 100 100 100 100 100 100 100 100 100 100 100 85 84 99 92 90 91 86 99 88 61 56 48 62
37 45 44 43 63 100 100 100 100 100 100 100 100 100 100 96 94 100 100 100 100 100 100 100 100 100 96 100 100 100 100 98 97 95 95 71 56 52 53 54 45 56 46
43 47 47 43 64 100 100 100 100 100 100 100 100 100 100 100 86 92 100 100 100 94 100 100 98 100 99 95 80 85 100 100 100 100 98 93 62 68 67 50 48 46 50
47 50 52 50 60 96 100 100 100 100 100 100 100 100 100 100 100 94 91 100 100 99 82 72 100 100 100 100 100 93 80 91 71 70 84 71 70 87 80 67 59 65 60
48 51 54 52 50 59 62 84 86 77 95 99 87 84 89 83 87 89 97 74 81 100 100 100 100 100 100 100 100 97 86 90 98 97 100 89 72 56 49 52 67 56 42
57 59 56 56 57 68 61 51 62 68 63 73 80 66 68 74 64 59 63 74 64 69 85 99 100 100 100 100 100 100 99 90 83 86 93 88 84 89 88 78 87 90 82
30 29 33 39 41 44 54 67 60 55 57 61 62 71 74 61 54 55 57 56 61 56 60 73 77 92 89 98 100 100 100 100 96 85 81 88 98 79 76 81 80 79 83
25 25 23 23 26 30 32 35 44 51 52 52 54 55 54 53 64 67 61 52 47 48 50 49 48 59 58 59 79 90 87 90 92 99 100 100 100 97 82 73 77 74 76
31 29 26 24 24 22 20 21 23 23 22 22 25 30 32 32 26 24 26 31 43 51 53 51 48 47 51 56 59 59 64 70 74 80 78 80 88 96 98 96 91 89 86
45 43 40 38 34 29 25 23 20 16 13 12 11 9 8 7 7 8 8 11 17 24 32 41 45 45 48 48 49 50 54 58 59 61 66 71 77 81 83 76 73 72 74
59 57 54 47 40 34 28 23 18 14 12 11 10 10 10 10 9 7 5 4 4 4 5 7 11 17 24 35 44 50 49 51 52 52 55 63 70 77 78 80 85 89 88
63 58 50 41 34 28 23 18 12 8 6 5 4 4 4 4 4 3 3 3 2 2 3 3 4 4 4 6 7 11 19 26 39 50 53 55 58 63 67 72 77 83 91
62 57 48 40 33 28 23 16 10 6 4 3 2 2 2 2 2 2 2 2 2 2 2 2 2 2 3 4 4 4 4 5 6 9 15 25 35 46 51 58 68 79 86

GFSGL_250_rhum_114.txt.gz
RH
100 87 94 70 63 56 60 65 74 84 73 64 55 42 33 31 36 32 28 20 68 86 100 100 93 71 67 99 99 99 100 99 72 50 49 55 80 87 80 95 83 92 100
100 96 92 92 86 87 74 74 80 73 65 59 49 35 30 32 39 76 73 100 100 100 81 80 80 86 96 100 99 100 80 100 86 68 56 72 79 98 83 100 100 100 100
100 100 98 92 95 90 82 69 60 62 57 52 44 34 35 38 100 100 94 100 100 100 94 84 92 72 88 100 100 82 92 96 79 77 56 55 71 87 92 100 100 100 100
87 97 100 100 89 90 80 68 66 77 64 47 50 40 34 79 100 100 100 100 93 83 74 85 93 86 100 100 100 100 92 88 71 63 54 66 84 67 80 100 100 100 100
81 79 87 86 98 95 99 99 90 72 58 49 38 42 34 100 100 100 100 93 95 99 100 100 100 100 100 98 100 87 70 76 73 66 75 56 61 75 77 78 94 99 100
72 74 85 94 100 100 87 77 65 52 50 42 46 32 92 100 100 100 100 100 100 100 100 100 100 100 100 95 100 100 100 88 88 81 81 85 69 63 62 74 72 80 100
76 84 92 100 99 94 84 61 44 51 47 50 43 31 100 100 100 100 100 79 89 79 100 100 100 96 100 100 100 100 100 93 63 79 78 87 68 62 57 42 40 47 70
58 59 60 60 53 53 54 56 57 81 60 52 32 66 100 100 100 100 94 95 72 100 100 100 100 100 100 100 100 100 100 92 81 74 78 82 79 58 40 37 31 33 36
65 66 74 77 71 64 63 65 76 85 63 47 41 94 100 100 100 100 100 100 97 100 100 100 100 100 100 100 100 100 100 81 98 74 63 54 73 54 42 37 26 23 22
66 69 71 61 54 49 48 52 64 79 50 40 69 100 100 100 100 100 100 100 83 100 100 100 100 100 100 100 100 100 100 100 96 82 91 79 78 60 47 39 31 27 25
46 48 46 44 41 36 34 35 42 56 34 37 83 100 100 100 100 100 100 100 92 100 100 99 100 100 100 100 100 100 100 100 100 100 100 99 81 59 50 53 39 30 31
35 33 32 30 27 27 28 28 32 36 42 56 99 100 100 100 100 100 100 100 100 100 100 100 100 100 100 100 100 100 100 100 100 100 100 87 67 67 65 51 37 35 40
27 28 27 27 27 25 25 25 27 32 42 75 100 100 100 100 100 100 100 100 100 100 90 100 100 100 92 100 100 100 100 100 100 100 100 95 85 77 65 50 48 48 49
24 25 25 26 27 29 31 30 29 38 54 96 100 100 100 100 100 100 100 100 100 100 100 100 94 99 100 100 100 100 100 100 100 100 100 100 100 84 79 52 55 56 53
24 25 25 26 31 38 39 46 48 57 85 100 100 100 100 100 100 100 100 100 100 100 100 100 100 100 89 100 90 100 100 100 100 100 94 87 83 88 99 75 78 74 70
27 29 29 32 37 47 55 58 56 72 99 100 100 100 100 100 100 100 100 100 100 100 100 100 100 100 100 100 100 100 100 99 94 96 83 81 92 79 80 97 94 87 65
42 41 41 46 42 47 52 50 43 52 71 93 89 98 100 100 100 100 98 100 100 100 100 100 100 91 100 100 100 100 100 100 100 100 93 97 100 88 78 88 92 98 85
46 48 48 44 41 45 48 50 48 44 56 62 64 65 68 92 99 94 84 82 82 96 100 90 86 88 100 96 97 100 100 100 100 100 100 97 99 96 78 78 96 97 100
50 50 48 42 40 44 49 55 57 54 56 61 59 44 35 52 64 70 68 73 71 68 75 76 81 80 80 93 100 95 80 91 99 99 100 96 88 85 95 77 73 90 88
38 36 33 33 33 32 31 33 33 34 41 45 62 69 60 49 40 41 48 60 68 63 57 53 62 67 73 77 73 74 73 79 84 68 64 83 87 79 65 68 80 80 75
29 32 32 28 24 25 26 25 24 23 22 23 27 33 42 50 44 46 43 39 40 43 48 56 62 52 54 53 58 66 64 56 55 61 76 71 59 57 63 64 59 57 57
35 34 34 36 36 34 31 28 24 21 18 16 14 13 13 13 14 14 18 19 23 28 30 33 33 37 40 47 52 53 52 57 69 68 62 64 62 64 58 59 59 59 62
45 47 48 46 47 45 43 40 35 30 25 24 22 21 18 13 9 7 6 6 6 7 8 9 11 13 15 19 26 32 42 52 59 62 63 66 75 83 85 87 90 96 94
56 61 59 55 55 53 47 38 29 24 21 20 19 15 13 12 12 11 9 7 5 4 3 4 4 5 5 4 5 8 13 21 29 40 49 58 66 67 64 65 66 68 74
65 62 61 59 57 54 44 34 28 24 21 16 12 9 6 5 4 5 5 4 4 3 3 3 2 2 2 3 3 4 4 4 5 8 13 24 36 45 54 58 59 60 60
67 67 66 64 57 48 38 31 26 22 17 11 8 6 4 3 2 2 2 2 2 2 2 2 2 2 2 2 2 2 2 3 4 4 4 4 6 10 18 27 36 46 55

GFSGL_250_rhum_117.txt.gz
RH
68 48 49 81 75 69 73 48 43 50 46 51 51 50 44 56 48 41 44 46 36 39 38 22 20 21 16 15 15 26 37 96 100 100 100 100 88 69 89 86 68 48 50
94 95 88 78 76 78 100 75 79 83 62 70 80 75 74 62 66 60 50 45 48 37 24 23 23 18 50 82 99 100 100 100 100 100 96 73 68 64 100 79 51 60 63
100 100 100 100 100 97 100 95 100 100 89 98 84 85 81 85 79 69 56 36 39 37 28 34 49 67 100 100 100 100 95 99 100 100 97 55 73 95 95 52 59 81 80
100 100 100 100 100 100 100 100 100 100 91 94 99 95 90 78 79 60 44 36 40 37 57 74 98 100 100 100 100 100 100 96 93 93 68 70 96 89 73 59 94 100 100
96 100 100 100 100 96 100 100 96 100 97 93 90 89 85 67 56 48 34 42 36 72 98 100 100 100 100 100 95 84 78 72 88 88 69 84 81 88 68 70 95 98 100
68 68 74 75 82 91 91 97 96 93 92 91 82 82 75 52 44 42 37 41 75 100 100 100 100 98 71 88 85 80 75 93 100 100 81 69 69 80 74 100 100 100 100
64 82 84 70 78 70 72 77 75 82 82 82 68 56 56 49 59 43 44 68 100 100 100 100 100 64 84 100 100 100 92 100 100 100 84 81 55 72 88 100 100 100 100
60 54 57 63 68 66 64 57 62 63 56 57 62 64 64 48 44 49 52 100 100 100 100 88 100 79 100 100 100 100 100 88 100 100 100 94 94 76 78 98 100 100 100
65 68 73 74 70 65 65 66 66 66 66 62 62 64 52 60 56 58 96 100 100 100 100 93 92 100 95 100 98 97 100 100 100 100 100 100 100 90 90 96 100 88 92
55 57 64 63 63 67 67 62 68 69 67 71 77 78 67 66 70 54 100 100 100 100 100 100 100 100 100 100 100 76 100 100 100 100 100 100 100 100 93 93 89 80 81
40 45 50 54 52 52 53 53 51 50 51 61 65 72 64 53 60 74 100 100 100 100 100 100 100 100 100 100 99 100 100 100 100 100 100 100 100 100 100 92 79 69 84
29 29 30 32 34 34 36 36 36 37 38 42 47 54 50 59 57 93 100 100 100 100 100 100 100 100 100 100 100 100 100 100 100 100 100 100 100 100 100 97 90 83 74
23 26 28 29 28 28 31 32 34 33 33 32 32 36 44 66 70 100 100 100 100 100 100 100 100 100 100 100 100 90 100 100 100 100 100 100 100 100 100 100 100 100 88
20 22 24 25 27 29 32 32 34 35 37 35 37 39 46 63 91 100 100 100 100 100 100 100 100 100 100 100 100 100 100 90 100 100 100 100 100 100 100 100 100 100 100
21 23 24 25 28 29 31 33 34 38 42 45 42 54 59 61 94 100 100 100 100 100 100 100 100 100 100 100 100 100 100 100 100 100 100 100 100 100 100 100 100 100 100
32 32 32 32 32 31 32 37 42 44 49 52 48 55 53 71 83 92 100 100 100 100 100 100 100 100 100 100 100 100 100 100 100 100 100 100 100 100 100 100 100 100 100
48 46 47 47 44 35 31 32 33 37 44 47 47 44 49 43 64 70 89 100 100 100 100 100 100 100 100 100 100 100 100 100 100 100 82 97 94 100 100 100 100 100 99
44 46 48 49 46 42 41 41 38 42 45 52 55 51 41 39 42 50 62 72 83 99 98 100 100 100 100 100 100 100 100 100 96 100 100 100 87 87 97 96 90 100 100
41 45 48 43 38 37 37 36 31 29 31 34 36 40 44 54 49 41 45 45 55 59 65 70 77 86 98 100 100 100 99 100 100 96 88 93 95 96 86 80 74 87 92
35 37 37 36 33 29 25 23 22 22 20 19 20 22 23 27 31 34 46 38 33 32 36 38 42 54 56 70 79 94 100 94 91 85 100 98 90 87 84 86 76 77 68
32 30 30 29 27 26 26 24 23 23 23 23 21 19 17 16 16 17 24 24 30 31 32 30 32 30 30 34 53 62 62 76 85 85 76 80 84 97 99 100 100 100 91
29 28 32 34 34 32 31 30 34 35 34 34 31 28 23 17 13 12 11 10 11 13 14 18 20 24 25 26 29 32 40 44 53 61 68 76 81 76 68 66 67 70 92
34 37 35 34 43 46 52 59 59 56 54 51 46 38 31 29 29 27 24 17 12 9 8 7 7 6 6 9 14 22 24 26 32 39 50 59 67 72 70 70 66 60 65
39 40 46 52 63 67 67 66 62 56 50 42 36 31 29 29 25 19 17 16 14 11 8 5 4 4 4 4 4 4 5 6 11 17 23 28 32 37 47 55 61 70 79
46 49 62 69 67 65 66 62 54 49 44 38 33 30 26 20 15 13 11 9 6 6 5 4 3 3 2 2 2 3 3 3 4 4 5 7 12 18 23 29 35 40 48
57 72 70 69 70 70 65 54 46 41 35 31 27 21 16 12 10 7 4 3 3 3 3 2 2 2 2 2 2 2 2 2 2 2 3 3 4 4 5 6 10 17 26

GFSGL_250_rhum_120.txt.gz
RH
74 69 76 61 41 34 37 38 41 39 32 35 38 45 65 76 68 66 82 81 80 77 60 53 57 40 34 34 25 19 19 18 17 17 18 22 36 36 42 63 90 97 100
84 54 76 68 65 66 61 67 66 71 65 59 48 41 40 46 52 56 57 57 50 47 39 40 41 29 34 26 26 23 23 21 20 19 19 18 27 39 45 53 92 100 100
95 92 99 93 82 81 94 100 87 98 100 84 75 66 60 52 61 60 52 54 44 47 46 38 36 34 37 34 30 27 28 27 27 24 50 78 96 100 99 95 98 94 86
100 92 89 93 100 99 100 100 96 75 79 90 100 91 82 84 82 74 75 72 61 58 51 46 40 42 46 37 34 37 58 90 89 88 95 100 100 100 92 93 98 85 82
81 62 60 68 99 100 100 100 96 96 99 82 82 98 94 95 100 91 79 74 83 75 65 52 49 46 34 39 43 85 100 100 100 100 100 100 100 100 100 100 86 74 88
75 81 68 64 68 75 88 97 87 86 82 100 99 90 86 96 97 92 87 86 87 79 62 53 44 37 42 52 96 100 100 100 100 97 91 99 99 100 99 97 78 82 99
70 76 74 78 77 76 75 81 90 87 88 92 91 100 97 88 85 94 94 81 75 66 59 56 40 40 68 89 100 100 100 99 99 84 62 83 71 68 76 80 90 89 100
80 84 91 87 84 74 66 68 68 76 79 76 85 99 99 99 98 97 87 80 70 61 48 40 38 69 92 100 100 100 100 100 95 72 78 84 100 100 100 100 98 94 96
95 92 87 91 85 74 64 52 44 49 49 56 64 67 70 73 72 68 65 65 63 54 38 42 56 100 100 100 100 100 97 100 99 90 72 93 76 100 100 100 100 90 95
80 76 82 85 77 73 70 68 58 55 55 57 56 55 56 56 56 56 56 55 53 44 40 54 80 100 100 100 95 100 100 100 100 99 100 100 90 96 87 85 82 100 100
63 62 63 60 54 50 50 57 64 72 76 74 75 76 78 74 75 76 63 54 59 51 65 87 100 100 100 100 100 100 100 85 94 96 100 100 100 100 100 100 100 100 100
37 37 37 38 38 39 38 38 40 44 46 50 57 60 61 65 68 71 71 62 58 61 76 100 100 100 100 100 100 100 100 100 100 98 100 100 100 100 100 100 100 100 100
22 22 23 25 27 30 34 36 37 37 38 37 39 39 40 43 45 49 55 58 69 82 78 100 100 100 100 100 100 100 100 100 100 94 95 100 100 100 100 100 100 100 100
19 20 21 22 25 26 28 30 31 31 33 34 36 36 34 35 36 40 46 60 70 83 86 100 100 100 100 100 100 100 100 100 100 100 87 100 100 100 100 100 92 99 100
18 20 21 22 23 24 26 27 28 30 31 32 32 32 34 34 33 38 41 49 76 96 100 100 100 100 100 100 100 100 100 100 100 100 100 84 98 100 100 100 100 56 73
20 22 23 26 27 28 29 31 35 35 32 31 31 31 33 37 40 42 46 48 67 71 95 100 100 100 100 100 100 100 100 100 100 100 100 94 100 100 100 100 100 100 81
38 40 41 39 36 34 34 35 33 32 32 32 29 28 31 40 37 33 40 45 48 67 70 100 97 100 100 100 100 100 100 100 100 100 100 100 87 100 100 100 100 100 99
39 38 40 42 41 40 40 41 39 38 34 29 32 32 34 36 42 45 46 44 41 41 50 64 79 91 100 95 99 93 94 100 100 100 100 100 100 100 90 77 88 100 100
45 44 40 42 47 46 42 38 33 30 29 27 24 26 27 26 27 29 34 42 51 57 51 41 47 56 78 83 86 88 94 82 99 100 100 93 96 100 100 100 100 90 74
41 39 37 39 40 37 32 29 27 25 22 20 19 18 18 19 20 22 24 26 28 31 31 40 53 48 49 47 55 59 69 84 78 70 85 100 100 99 90 84 80 82 92
43 44 36 36 31 29 28 26 26 25 25 23 22 21 19 17 15 14 13 13 15 16 16 20 26 22 35 37 36 43 40 46 62 65 67 74 81 94 87 89 99 100 98
46 45 34 31 32 30 28 25 26 25 23 23 24 24 24 23 21 19 18 16 15 15 14 12 12 12 14 16 20 26 28 31 35 42 45 55 68 69 81 87 82 78 78
45 42 36 36 34 31 29 26 24 32 44 44 40 35 33 31 28 25 25 24 20 17 14 12 10 8 8 6 5 6 7 11 16 20 22 26 34 44 55 62 72 82 87
42 40 36 33 33 34 31 32 49 55 53 49 44 41 40 37 35 30 24 19 15 12 11 10 8 7 6 6 5 5 5 4 4 5 7 10 14 19 23 26 33 46 62
39 42 34 35 35 34 42 57 58 54 51 49 47 43 38 32 26 21 16 13 10 9 7 6 5 5 4 4 3 3 2 2 3 4 4 4 4 5 6 10 13 20 29
42 37 33 32 39 54 59 59 57 53 50 46 41 35 28 22 18 14 11 9 8 6 4 3 3 2 2 2 2 2 2 2 2 2 2 2 2 3 3 4 4 4 7

GFSGL_250_rhum_123.txt.gz
RH
58 68 60 74 77 90 62 77 76 66 56 35 34 28 22 18 20 25 35 60 89 99 97 89 87 84 95 90 88 73 75 50 41 38 23 28 22 24 20 19 20 21 20
63 78 84 79 69 72 64 71 80 56 73 67 52 47 36 24 20 21 26 31 43 65 88 89 82 80 88 80 68 79 79 55 36 24 24 21 25 21 15 15 15 16 17
73 80 76 70 76 75 86 73 64 61 66 72 62 55 57 45 36 30 29 32 37 43 46 49 58 76 74 81 72 63 64 54 27 24 24 29 25 23 16 16 16 18 20
80 96 83 75 81 97 93 98 80 79 82 81 93 89 76 54 55 62 55 62 48 40 41 42 44 48 48 39 37 38 39 32 28 26 38 37 31 32 32 28 26 40 49
85 86 95 85 72 85 97 99 98 100 100 99 100 100 100 91 73 62 71 57 61 56 48 49 58 54 50 47 37 45 45 35 33 42 46 45 85 81 70 92 100 95 100
80 82 73 70 70 61 58 84 86 88 88 88 99 96 100 98 93 83 91 84 84 85 86 84 81 78 72 70 55 53 52 45 47 42 40 67 84 94 94 100 97 71 98
83 88 94 80 61 76 76 72 69 66 87 93 96 98 95 94 100 92 92 98 95 98 100 94 90 84 72 68 59 57 52 50 43 44 87 82 85 98 100 100 100 94 100
84 87 92 99 89 83 74 75 78 73 78 76 76 73 78 88 85 97 100 92 89 94 99 93 89 80 78 66 63 53 48 49 62 76 96 100 100 100 100 100 100 100 97
66 73 85 97 98 97 97 90 85 76 73 83 80 56 53 54 54 57 73 86 95 96 99 96 93 84 74 61 54 49 48 64 94 100 100 100 90 79 63 76 97 100 98
68 67 65 70 84 86 75 73 72 76 67 68 66 62 59 50 49 57 71 76 68 72 79 70 65 72 65 64 52 48 44 89 100 100 100 100 92 76 62 96 100 100 100
60 61 62 66 71 70 69 67 64 64 63 64 66 69 76 72 62 54 55 57 55 55 54 57 61 62 56 48 54 47 80 100 100 100 100 93 78 81 78 87 94 100 100
40 40 41 45 48 50 53 51 49 50 49 49 48 49 54 59 58 58 56 55 51 46 46 46 49 49 53 47 52 60 100 100 100 100 100 100 100 100 94 96 79 77 100
29 29 32 34 35 37 40 42 44 43 44 43 42 40 41 45 51 56 62 66 66 59 54 51 50 54 58 57 52 94 100 100 100 100 100 100 100 90 87 99 90 100 98
19 19 20 20 22 23 23 24 26 26 28 30 33 36 38 39 38 38 38 39 42 45 46 46 49 59 75 76 73 100 100 100 100 100 100 100 100 100 90 83 95 86 91
18 18 18 19 19 20 22 24 25 27 29 29 29 30 30 29 31 32 33 34 32 31 32 33 38 48 78 84 72 97 100 100 100 100 100 100 99 95 100 100 100 100 85
25 27 27 28 29 31 32 32 33 34 33 31 29 28 28 29 30 32 31 31 33 33 32 31 38 46 66 82 84 83 100 100 100 100 100 100 100 100 98 88 98 100 100
37 40 43 47 48 44 40 37 35 36 34 32 29 29 31 32 30 30 29 30 32 33 32 29 32 38 49 68 84 94 98 93 100 100 100 100 100 100 100 94 92 95 100
44 45 46 45 47 48 46 45 47 47 47 43 36 32 30 28 26 26 28 30 31 32 39 43 38 39 40 48 62 61 77 80 84 100 100 100 100 100 100 100 100 77 86
58 53 51 49 50 48 49 52 48 42 37 32 30 28 26 24 23 22 21 21 22 24 27 30 38 44 39 42 51 49 50 53 55 69 98 91 100 100 100 99 100 100 100
53 51 51 44 42 44 41 36 32 30 27 23 20 19 18 18 18 17 16 15 14 14 15 17 19 22 28 33 30 32 40 41 42 35 52 69 70 90 100 100 97 88 86
48 46 48 47 43 44 39 31 25 24 22 22 20 18 19 20 20 18 14 13 12 11 11 11 10 12 13 15 18 20 21 26 28 30 36 37 42 52 67 77 88 98 100
43 44 43 42 45 46 39 32 25 24 22 20 20 20 20 17 16 16 16 17 19 19 18 16 13 12 10 9 8 9 11 14 15 17 20 24 32 39 38 44 60 63 66
44 42 37 38 40 37 34 29 25 24 22 21 21 19 19 23 28 27 28 28 27 23 20 18 16 15 14 12 9 7 5 4 4 5 6 7 9 14 27 37 38 42 50
47 42 36 33 36 36 35 29 24 22 21 20 23 32 36 37 36 33 28 23 18 16 14 12 11 10 9 8 7 7 7 6 6 5 5 4 4 5 6 9 17 34 45
44 39 35 32 32 29 28 25 22 20 25 37 40 40 39 37 34 30 24 18 16 13 11 9 8 7 7 6 6 5 4 4 4 4 4 4 4 4 4 4 4 6 10
40 36 31 28 27 27 24 20 19 28 43 44 42 42 39 35 29 22 17 15 11 9 8 6 5 4 4 3 3 3 2 2 2 2 2 2 2 2 3 3 3 3 4